Time,TemperatureF,DewpointF,PressureIn,WindDirection,WindDirectionDegrees,WindSpeedMPH,WindSpeedGustMPH,Humidity,HourlyPrecipIn,Conditions,Clouds,dailyrainin,SoftwareType,DateUTC
2013-03-10 00:00:00,44.6,18.6,30.30,ENE,73,0.0,0.0,35,0.00,CLR,,0.00,WeatherDisplay:10.37,2013-03-10 05:00:00,
2013-03-10 00:05:00,43.6,14.9,30.30,ENE,73,0.0,0.0,31,0.00,CLR,,0.00,WeatherDisplay:10.37,2013-03-10 05:05:00,
2013-03-10 00:06:00,43.7,15.0,30.30,ENE,73,0.0,0.0,31,0.00,CLR,,0.00,WeatherDisplay:10.37,2013-03-10 05:06:00,
2013-03-10 00:10:00,42.3,14.5,30.30,ENE,73,0.0,0.0,32,0.00,CLR,,0.00,WeatherDisplay:10.37,2013-03-10 05:10:00,
2013-03-10 00:11:00,42.2,14.4,30.30,ENE,73,0.0,0.0,32,0.00,CLR,,0.00,WeatherDisplay:10.37,2013-03-10 05:11:00,
2013-03-10 00:15:00,41.2,16.2,30.30,ENE,73,0.0,0.0,36,0.00,CLR,,0.00,WeatherDisplay:10.37,2013-03-10 05:15:00,
2013-03-10 00:16:00,41.1,16.1,30.30,ENE,73,0.0,0.0,36,0.00,CLR,,0.00,WeatherDisplay:10.37,2013-03-10 05:16:00,
2013-03-10 00:20:00,40.9,16.6,30.30,ENE,73,0.0,0.0,37,0.00,CLR,,0.00,WeatherDisplay:10.37,2013-03-10 05:20:00,
2013-03-10 00:21:00,40.9,16.6,30.30,ENE,73,0.0,0.0,37,0.00,CLR,,0.00,WeatherDisplay:10.37,2013-03-10 05:21:00,
2013-03-10 00:25:00,40.9,17.2,30.30,ENE,73,0.0,0.0,38,0.00,CLR,,0.00,WeatherDisplay:10.37,2013-03-10 05:25:00,
2013-03-10 00:26:00,40.9,17.2,30.30,ENE,73,0.0,0.0,38,0.00,CLR,,0.00,WeatherDisplay:10.37,2013-03-10 05:26:00,
2013-03-10 00:30:00,39.7,16.7,30.30,ENE,73,0.0,0.0,39,0.00,CLR,,0.00,WeatherDisplay:10.37,2013-03-10 05:30:00,
2013-03-10 00:31:00,39.6,16.6,30.30,ENE,73,0.0,0.0,39,0.00,CLR,,0.00,WeatherDisplay:10.37,2013-03-10 05:31:00,
2013-03-10 00:32:00,39.5,17.1,30.30,ENE,73,0.0,0.0,40,0.00,CLR,,0.00,WeatherDisplay:10.37,2013-03-10 05:32:00,
2013-03-10 00:35:00,39.0,17.3,30.30,ENE,73,0.0,0.0,41,0.00,CLR,,0.00,WeatherDisplay:10.37,2013-03-10 05:35:00,
2013-03-10 00:36:00,38.9,17.7,30.30,ENE,73,0.0,0.0,42,0.00,CLR,,0.00,WeatherDisplay:10.37,2013-03-10 05:36:00,
2013-03-10 00:37:00,38.5,17.4,30.30,ENE,73,0.0,0.0,42,0.00,CLR,,0.00,WeatherDisplay:10.37,2013-03-10 05:37:00,
2013-03-10 00:40:00,37.9,17.4,30.30,ENE,73,0.0,0.0,43,0.00,CLR,,0.00,WeatherDisplay:10.37,2013-03-10 05:40:00,
2013-03-10 00:41:00,37.9,17.4,30.30,ENE,73,0.0,0.0,43,0.00,CLR,,0.00,WeatherDisplay:10.37,2013-03-10 05:41:00,
2013-03-10 00:42:00,36.7,16.3,30.30,ENE,73,0.0,0.0,43,0.00,CLR,,0.00,WeatherDisplay:10.37,2013-03-10 05:42:00,
2013-03-10 00:45:00,37.6,17.6,30.29,ENE,73,0.0,0.0,44,0.00,CLR,,0.00,WeatherDisplay:10.37,2013-03-10 05:45:00,
2013-03-10 00:46:00,38.6,18.0,30.29,ENE,73,0.0,0.0,43,0.00,CLR,,0.00,WeatherDisplay:10.37,2013-03-10 05:46:00,
2013-03-10 00:47:00,38.6,18.0,30.29,ENE,73,0.0,0.0,43,0.00,CLR,,0.00,WeatherDisplay:10.37,2013-03-10 05:47:00,
2013-03-10 00:50:00,39.7,16.7,30.29,ENE,73,0.0,0.0,39,0.00,CLR,,0.00,WeatherDisplay:10.37,2013-03-10 05:50:00,
2013-03-10 00:51:00,39.8,16.2,30.30,ENE,73,0.0,0.0,38,0.00,CLR,,0.00,WeatherDisplay:10.37,2013-03-10 05:51:00,
2013-03-10 00:52:00,39.8,16.2,30.30,ENE,73,0.0,0.0,38,0.00,CLR,,0.00,WeatherDisplay:10.37,2013-03-10 05:52:00,
2013-03-10 00:56:00,40.4,19.1,30.30,ENE,73,0.0,0.0,42,0.00,CLR,,0.00,WeatherDisplay:10.37,2013-03-10 05:56:00,
2013-03-10 00:57:00,40.4,18.0,30.30,ENE,73,0.0,0.0,40,0.00,CLR,,0.00,WeatherDisplay:10.37,2013-03-10 05:57:00,
2013-03-10 00:58:00,40.7,17.0,30.30,ENE,73,0.0,0.0,38,0.00,CLR,,0.00,WeatherDisplay:10.37,2013-03-10 05:58:00,
2013-03-10 01:01:00,40.4,17.4,30.30,ENE,73,0.0,0.0,39,0.00,CLR,,0.00,WeatherDisplay:10.37,2013-03-10 06:01:00,
2013-03-10 01:02:00,40.2,17.2,30.30,ENE,73,0.0,0.0,39,0.00,CLR,,0.00,WeatherDisplay:10.37,2013-03-10 06:02:00,
2013-03-10 01:06:00,39.5,16.6,30.30,ENE,73,0.0,0.0,39,0.00,CLR,,0.00,WeatherDisplay:10.37,2013-03-10 06:06:00,
2013-03-10 01:07:00,39.5,17.1,30.30,ENE,73,0.0,0.0,40,0.00,CLR,,0.00,WeatherDisplay:10.37,2013-03-10 06:07:00,
2013-03-10 01:08:00,39.7,17.9,30.30,ENE,73,0.0,0.0,41,0.00,CLR,,0.00,WeatherDisplay:10.37,2013-03-10 06:08:00,
2013-03-10 01:11:00,39.9,20.3,30.30,ENE,73,0.0,0.0,45,0.00,CLR,,0.00,WeatherDisplay:10.37,2013-03-10 06:11:00,
2013-03-10 01:12:00,39.4,19.8,30.30,ENE,73,0.0,0.0,45,0.00,CLR,,0.00,WeatherDisplay:10.37,2013-03-10 06:12:00,
2013-03-10 01:13:00,39.4,19.8,30.30,ENE,73,0.0,0.0,45,0.00,CLR,,0.00,WeatherDisplay:10.37,2013-03-10 06:13:00,
2013-03-10 01:16:00,40.7,20.5,30.29,ENE,73,0.0,0.0,44,0.00,CLR,,0.00,WeatherDisplay:10.37,2013-03-10 06:16:00,
2013-03-10 01:17:00,40.2,18.3,30.29,ENE,73,0.0,0.0,41,0.00,CLR,,0.00,WeatherDisplay:10.37,2013-03-10 06:17:00,
2013-03-10 01:18:00,41.1,18.0,30.29,ENE,73,0.0,0.0,39,0.00,CLR,,0.00,WeatherDisplay:10.37,2013-03-10 06:18:00,
2013-03-10 01:21:00,39.6,16.6,30.29,ENE,73,0.0,0.0,39,0.00,CLR,,0.00,WeatherDisplay:10.37,2013-03-10 06:21:00,
2013-03-10 01:23:00,39.6,17.2,30.29,ENE,73,0.0,0.0,40,0.00,CLR,,0.00,WeatherDisplay:10.37,2013-03-10 06:23:00,
2013-03-10 01:26:00,39.3,18.1,30.30,ENE,73,0.0,0.0,42,0.00,CLR,,0.00,WeatherDisplay:10.37,2013-03-10 06:26:00,
2013-03-10 01:28:00,39.3,18.1,30.30,ENE,73,0.0,0.0,42,0.00,CLR,,0.00,WeatherDisplay:10.37,2013-03-10 06:28:00,
2013-03-10 01:29:00,39.3,18.1,30.29,ENE,73,0.0,0.0,42,0.00,CLR,,0.00,WeatherDisplay:10.37,2013-03-10 06:29:00,
2013-03-10 01:31:00,39.2,18.5,30.29,ENE,73,0.0,0.0,43,0.00,CLR,,0.00,WeatherDisplay:10.37,2013-03-10 06:31:00,
2013-03-10 01:33:00,39.2,18.5,30.29,ENE,73,0.0,0.0,43,0.00,CLR,,0.00,WeatherDisplay:10.37,2013-03-10 06:33:00,
2013-03-10 01:34:00,39.0,18.4,30.30,ENE,73,0.0,0.0,43,0.00,CLR,,0.00,WeatherDisplay:10.37,2013-03-10 06:34:00,
2013-03-10 01:36:00,39.1,19.0,30.30,ENE,73,0.0,0.0,44,0.00,CLR,,0.00,WeatherDisplay:10.37,2013-03-10 06:36:00,
2013-03-10 01:38:00,39.1,19.0,30.30,ENE,73,0.0,0.0,44,0.00,CLR,,0.00,WeatherDisplay:10.37,2013-03-10 06:38:00,
2013-03-10 01:39:00,39.5,19.9,30.30,ENE,73,0.0,0.0,45,0.00,CLR,,0.00,WeatherDisplay:10.37,2013-03-10 06:39:00,
2013-03-10 01:41:00,39.7,20.1,30.30,ENE,73,0.0,0.0,45,0.00,CLR,,0.00,WeatherDisplay:10.37,2013-03-10 06:41:00,
2013-03-10 01:43:00,38.5,18.4,30.30,ENE,73,0.0,0.0,44,0.00,CLR,,0.00,WeatherDisplay:10.37,2013-03-10 06:43:00,
2013-03-10 01:44:00,38.5,18.4,30.30,ENE,73,0.0,0.0,44,0.00,CLR,,0.00,WeatherDisplay:10.37,2013-03-10 06:44:00,
2013-03-10 01:45:00,38.5,19.0,30.30,ENE,73,0.0,0.0,45,0.00,CLR,,0.00,WeatherDisplay:10.37,2013-03-10 06:45:00,
2013-03-10 01:46:00,39.1,20.0,30.29,ENE,73,0.0,0.0,46,0.00,CLR,,0.00,WeatherDisplay:10.37,2013-03-10 06:46:00,
2013-03-10 01:48:00,39.1,20.0,30.29,ENE,73,0.0,0.0,46,0.00,CLR,,0.00,WeatherDisplay:10.37,2013-03-10 06:48:00,
2013-03-10 01:49:00,38.0,17.5,30.29,ENE,73,0.0,0.0,43,0.00,CLR,,0.00,WeatherDisplay:10.37,2013-03-10 06:49:00,
2013-03-10 01:50:00,40.4,18.5,30.29,ENE,73,0.0,0.0,41,0.00,CLR,,0.00,WeatherDisplay:10.37,2013-03-10 06:50:00,
2013-03-10 01:51:00,39.6,17.8,30.29,ENE,73,0.0,0.0,41,0.00,CLR,,0.00,WeatherDisplay:10.37,2013-03-10 06:51:00,
2013-03-10 01:54:00,39.5,18.3,30.29,ENE,73,0.0,0.0,42,0.00,CLR,,0.00,WeatherDisplay:10.37,2013-03-10 06:54:00,
2013-03-10 01:56:00,40.0,19.8,30.29,ENE,73,0.0,0.0,44,0.00,CLR,,0.00,WeatherDisplay:10.37,2013-03-10 06:56:00,
2013-03-10 01:59:00,40.1,21.0,30.29,ENE,73,0.0,0.0,46,0.00,CLR,,0.00,WeatherDisplay:10.37,2013-03-10 06:59:00,
2013-03-10 03:01:00,40.1,20.4,30.29,ENE,73,0.0,0.0,45,0.00,CLR,,0.00,WeatherDisplay:10.37,2013-03-10 07:01:00,
2013-03-10 03:04:00,40.4,21.2,30.29,ENE,73,0.0,0.0,46,0.00,CLR,,0.00,WeatherDisplay:10.37,2013-03-10 07:04:00,
2013-03-10 03:06:00,40.4,21.7,30.29,ENE,73,0.0,0.0,47,0.00,CLR,,0.00,WeatherDisplay:10.37,2013-03-10 07:06:00,
2013-03-10 03:09:00,40.8,21.1,30.29,ENE,73,0.0,0.0,45,0.00,CLR,,0.00,WeatherDisplay:10.37,2013-03-10 07:09:00,
2013-03-10 03:11:00,40.0,18.7,30.29,ENE,73,0.0,0.0,42,0.00,CLR,,0.00,WeatherDisplay:10.37,2013-03-10 07:11:00,
2013-03-10 03:14:00,40.0,18.2,30.29,ENE,73,0.0,0.0,41,0.00,CLR,,0.00,WeatherDisplay:10.37,2013-03-10 07:14:00,
2013-03-10 03:16:00,37.2,16.2,30.29,ENE,73,0.0,0.0,42,0.00,CLR,,0.00,WeatherDisplay:10.37,2013-03-10 07:16:00,
2013-03-10 03:17:00,37.2,16.2,30.29,ENE,73,0.0,0.0,42,0.00,CLR,,0.00,WeatherDisplay:10.37,2013-03-10 07:17:00,
2013-03-10 03:19:00,38.8,18.7,30.28,ENE,73,0.0,0.0,44,0.00,CLR,,0.00,WeatherDisplay:10.37,2013-03-10 07:19:00,
2013-03-10 03:21:00,38.1,18.6,30.28,ENE,73,0.0,0.0,45,0.00,CLR,,0.00,WeatherDisplay:10.37,2013-03-10 07:21:00,
2013-03-10 03:22:00,37.8,18.8,30.28,ENE,73,0.0,0.0,46,0.00,CLR,,0.00,WeatherDisplay:10.37,2013-03-10 07:22:00,
2013-03-10 03:24:00,37.6,18.7,30.28,ENE,73,0.0,0.0,46,0.00,CLR,,0.00,WeatherDisplay:10.37,2013-03-10 07:24:00,
2013-03-10 03:27:00,36.9,18.5,30.28,ENE,73,0.0,0.0,47,0.00,CLR,,0.00,WeatherDisplay:10.37,2013-03-10 07:27:00,
2013-03-10 03:29:00,35.9,18.1,30.28,ENE,73,0.0,0.0,48,0.00,CLR,,0.00,WeatherDisplay:10.37,2013-03-10 07:29:00,
2013-03-10 03:30:00,36.2,18.4,30.28,ENE,73,0.0,0.0,48,0.00,CLR,,0.00,WeatherDisplay:10.37,2013-03-10 07:30:00,
2013-03-10 03:32:00,36.5,19.1,30.28,ENE,73,0.0,0.0,49,0.00,CLR,,0.00,WeatherDisplay:10.37,2013-03-10 07:32:00,
2013-03-10 03:34:00,35.9,19.0,30.28,ENE,73,0.0,0.0,50,0.00,CLR,,0.00,WeatherDisplay:10.37,2013-03-10 07:34:00,
2013-03-10 03:35:00,36.2,19.3,30.28,ENE,73,0.0,0.0,50,0.00,CLR,,0.00,WeatherDisplay:10.37,2013-03-10 07:35:00,
2013-03-10 03:37:00,36.0,18.7,30.28,ENE,73,0.0,0.0,49,0.00,CLR,,0.00,WeatherDisplay:10.37,2013-03-10 07:37:00,
2013-03-10 03:40:00,34.1,17.8,30.28,ENE,73,0.0,0.0,51,0.00,CLR,,0.00,WeatherDisplay:10.37,2013-03-10 07:40:00,
2013-03-10 03:42:00,37.4,20.4,30.28,ENE,73,0.0,0.0,50,0.00,CLR,,0.00,WeatherDisplay:10.37,2013-03-10 07:42:00,
2013-03-10 03:45:00,37.5,21.5,30.28,ENE,73,0.0,0.0,52,0.00,CLR,,0.00,WeatherDisplay:10.37,2013-03-10 07:45:00,
2013-03-10 03:47:00,38.6,23.8,30.28,ENE,73,0.0,0.0,55,0.00,CLR,,0.00,WeatherDisplay:10.37,2013-03-10 07:47:00,
2013-03-10 03:50:00,38.7,23.5,30.28,ENE,73,0.0,0.0,54,0.00,CLR,,0.00,WeatherDisplay:10.37,2013-03-10 07:50:00,
2013-03-10 03:52:00,39.5,23.8,30.28,ENE,73,0.0,0.0,53,0.00,CLR,,0.00,WeatherDisplay:10.37,2013-03-10 07:52:00,
2013-03-10 03:53:00,39.5,23.8,30.28,ENE,73,0.0,0.0,53,0.00,CLR,,0.00,WeatherDisplay:10.37,2013-03-10 07:53:00,
2013-03-10 03:55:00,39.4,23.7,30.28,ENE,73,0.0,0.0,53,0.00,CLR,,0.00,WeatherDisplay:10.37,2013-03-10 07:55:00,
2013-03-10 03:57:00,39.3,22.2,30.28,ENE,73,0.0,0.0,50,0.00,CLR,,0.00,WeatherDisplay:10.37,2013-03-10 07:57:00,
2013-03-10 03:58:00,38.9,21.8,30.28,ENE,73,0.0,0.0,50,0.00,CLR,,0.00,WeatherDisplay:10.37,2013-03-10 07:58:00,
2013-03-10 04:00:00,38.5,20.5,30.28,ENE,73,0.0,0.0,48,0.00,CLR,,0.00,WeatherDisplay:10.37,2013-03-10 08:00:00,
2013-03-10 04:02:00,37.8,19.8,30.28,ENE,73,0.0,0.0,48,0.00,CLR,,0.00,WeatherDisplay:10.37,2013-03-10 08:02:00,
2013-03-10 04:03:00,37.7,20.2,30.28,ENE,73,0.0,0.0,49,0.00,CLR,,0.00,WeatherDisplay:10.37,2013-03-10 08:03:00,
2013-03-10 04:05:00,37.0,20.1,30.28,ENE,73,0.0,0.0,50,0.00,CLR,,0.00,WeatherDisplay:10.37,2013-03-10 08:05:00,
2013-03-10 04:07:00,37.4,20.9,30.27,ENE,73,0.0,0.0,51,0.00,CLR,,0.00,WeatherDisplay:10.37,2013-03-10 08:07:00,
2013-03-10 04:08:00,35.3,18.5,30.28,ENE,73,0.0,0.0,50,0.00,CLR,,0.00,WeatherDisplay:10.37,2013-03-10 08:08:00,
2013-03-10 04:10:00,35.3,18.5,30.27,ENE,73,0.0,0.0,50,0.00,CLR,,0.00,WeatherDisplay:10.37,2013-03-10 08:10:00,
2013-03-10 04:11:00,35.2,18.9,30.27,ENE,73,0.0,0.0,51,0.00,CLR,,0.00,WeatherDisplay:10.37,2013-03-10 08:11:00,
2013-03-10 04:12:00,35.8,19.9,30.27,ENE,73,0.0,0.0,52,0.00,CLR,,0.00,WeatherDisplay:10.37,2013-03-10 08:12:00,
2013-03-10 04:14:00,37.6,22.4,30.27,ENE,73,0.0,0.0,54,0.00,CLR,,0.00,WeatherDisplay:10.37,2013-03-10 08:14:00,
2013-03-10 04:16:00,36.2,20.7,30.27,ENE,73,0.0,0.0,53,0.00,CLR,,0.00,WeatherDisplay:10.37,2013-03-10 08:16:00,
2013-03-10 04:17:00,37.6,21.5,30.27,ENE,73,0.0,0.0,52,0.00,CLR,,0.00,WeatherDisplay:10.37,2013-03-10 08:17:00,
2013-03-10 04:19:00,37.6,21.1,30.27,ENE,73,0.0,0.0,51,0.00,CLR,,0.00,WeatherDisplay:10.37,2013-03-10 08:19:00,
2013-03-10 04:21:00,37.0,21.4,30.27,ENE,73,0.0,0.0,53,0.00,CLR,,0.00,WeatherDisplay:10.37,2013-03-10 08:21:00,
2013-03-10 04:23:00,36.6,21.9,30.27,ENE,73,0.0,0.0,55,0.00,CLR,,0.00,WeatherDisplay:10.37,2013-03-10 08:23:00,
2013-03-10 04:24:00,36.3,20.8,30.27,ENE,73,0.0,0.0,53,0.00,CLR,,0.00,WeatherDisplay:10.37,2013-03-10 08:24:00,
2013-03-10 04:26:00,35.5,20.5,30.27,ENE,73,0.0,0.0,54,0.00,CLR,,0.00,WeatherDisplay:10.37,2013-03-10 08:26:00,
2013-03-10 04:28:00,35.7,21.9,30.27,ENE,73,0.0,0.0,57,0.00,CLR,,0.00,WeatherDisplay:10.37,2013-03-10 08:28:00,
2013-03-10 04:29:00,34.8,21.9,30.27,ENE,73,0.0,0.0,59,0.00,CLR,,0.00,WeatherDisplay:10.37,2013-03-10 08:29:00,
2013-03-10 04:31:00,34.9,21.6,30.27,ENE,73,0.0,0.0,58,0.00,CLR,,0.00,WeatherDisplay:10.37,2013-03-10 08:31:00,
2013-03-10 04:33:00,35.4,22.5,30.27,ENE,73,0.0,0.0,59,0.00,CLR,,0.00,WeatherDisplay:10.37,2013-03-10 08:33:00,
2013-03-10 04:34:00,35.4,23.3,30.27,ENE,73,0.0,0.0,61,0.00,CLR,,0.00,WeatherDisplay:10.37,2013-03-10 08:34:00,
2013-03-10 04:36:00,35.4,23.3,30.26,ENE,73,0.0,0.0,61,0.00,CLR,,0.00,WeatherDisplay:10.37,2013-03-10 08:36:00,
2013-03-10 04:38:00,35.4,23.3,30.26,ENE,73,0.0,0.0,61,0.00,CLR,,0.00,WeatherDisplay:10.37,2013-03-10 08:38:00,
2013-03-10 04:40:00,34.5,22.0,30.26,ENE,73,0.0,0.0,60,0.00,CLR,,0.00,WeatherDisplay:10.37,2013-03-10 08:40:00,
2013-03-10 04:41:00,35.0,21.7,30.26,ENE,73,0.0,0.0,58,0.00,CLR,,0.00,WeatherDisplay:10.37,2013-03-10 08:41:00,
2013-03-10 04:42:00,35.0,21.7,30.26,ENE,73,0.0,0.0,58,0.00,CLR,,0.00,WeatherDisplay:10.37,2013-03-10 08:42:00,
2013-03-10 04:43:00,36.7,22.9,30.26,ENE,73,0.0,0.0,57,0.00,CLR,,0.00,WeatherDisplay:10.37,2013-03-10 08:43:00,
2013-03-10 04:45:00,36.5,23.1,30.26,ENE,73,0.0,0.0,58,0.00,CLR,,0.00,WeatherDisplay:10.37,2013-03-10 08:45:00,
2013-03-10 04:46:00,36.3,22.9,30.26,ENE,73,0.0,0.0,58,0.00,CLR,,0.00,WeatherDisplay:10.37,2013-03-10 08:46:00,
2013-03-10 04:47:00,36.5,23.5,30.26,ENE,73,0.0,0.0,59,0.00,CLR,,0.00,WeatherDisplay:10.37,2013-03-10 08:47:00,
2013-03-10 04:48:00,36.0,23.0,30.26,ENE,73,0.0,0.0,59,0.00,CLR,,0.00,WeatherDisplay:10.37,2013-03-10 08:48:00,
2013-03-10 04:50:00,36.0,22.6,30.26,ENE,73,0.0,0.0,58,0.00,CLR,,0.00,WeatherDisplay:10.37,2013-03-10 08:50:00,
2013-03-10 04:52:00,35.5,22.2,30.26,ENE,73,0.0,0.0,58,0.00,CLR,,0.00,WeatherDisplay:10.37,2013-03-10 08:52:00,
2013-03-10 04:53:00,35.8,22.9,30.26,ENE,73,0.0,0.0,59,0.00,CLR,,0.00,WeatherDisplay:10.37,2013-03-10 08:53:00,
2013-03-10 04:55:00,36.7,24.5,30.27,ENE,73,0.0,0.0,61,0.00,CLR,,0.00,WeatherDisplay:10.37,2013-03-10 08:55:00,
2013-03-10 04:57:00,37.1,25.7,30.27,ENE,73,0.0,0.0,63,0.00,CLR,,0.00,WeatherDisplay:10.37,2013-03-10 08:57:00,
2013-03-10 04:58:00,36.8,25.4,30.27,ENE,73,0.0,0.0,63,0.00,CLR,,0.00,WeatherDisplay:10.37,2013-03-10 08:58:00,
2013-03-10 05:00:00,37.2,25.8,30.27,ENE,73,0.0,0.0,63,0.00,CLR,,0.00,WeatherDisplay:10.37,2013-03-10 09:00:00,
2013-03-10 05:02:00,36.4,24.2,30.26,ENE,73,0.0,0.0,61,0.00,CLR,,0.00,WeatherDisplay:10.37,2013-03-10 09:02:00,
2013-03-10 05:03:00,36.4,24.2,30.26,ENE,73,0.0,0.0,61,0.00,CLR,,0.00,WeatherDisplay:10.37,2013-03-10 09:03:00,
2013-03-10 05:05:00,36.4,24.2,30.26,ENE,73,0.0,0.0,61,0.00,CLR,,0.00,WeatherDisplay:10.37,2013-03-10 09:05:00,
2013-03-10 05:07:00,37.5,25.3,30.27,ENE,73,0.0,0.0,61,0.00,CLR,,0.00,WeatherDisplay:10.37,2013-03-10 09:07:00,
2013-03-10 05:08:00,36.8,24.6,30.27,ENE,73,0.0,0.0,61,0.00,CLR,,0.00,WeatherDisplay:10.37,2013-03-10 09:08:00,
2013-03-10 05:10:00,37.2,25.8,30.26,ENE,73,0.0,0.0,63,0.00,CLR,,0.00,WeatherDisplay:10.37,2013-03-10 09:10:00,
2013-03-10 05:12:00,37.2,24.2,30.27,ENE,73,0.0,0.0,59,0.00,CLR,,0.00,WeatherDisplay:10.37,2013-03-10 09:12:00,
2013-03-10 05:13:00,37.2,23.8,30.27,ENE,73,0.0,0.0,58,0.00,CLR,,0.00,WeatherDisplay:10.37,2013-03-10 09:13:00,
2013-03-10 05:16:00,36.3,23.7,30.27,ENE,73,0.0,0.0,60,0.00,CLR,,0.00,WeatherDisplay:10.37,2013-03-10 09:16:00,
2013-03-10 05:17:00,35.7,23.2,30.27,ENE,73,0.0,0.0,60,0.00,CLR,,0.00,WeatherDisplay:10.37,2013-03-10 09:17:00,
2013-03-10 05:18:00,35.3,23.2,30.27,ENE,73,0.0,0.0,61,0.00,CLR,,0.00,WeatherDisplay:10.37,2013-03-10 09:18:00,
2013-03-10 05:21:00,35.2,24.2,30.27,ENE,73,0.0,0.0,64,0.00,CLR,,0.00,WeatherDisplay:10.37,2013-03-10 09:21:00,
2013-03-10 05:23:00,33.7,23.5,30.28,ENE,73,0.0,0.0,66,0.00,CLR,,0.00,WeatherDisplay:10.37,2013-03-10 09:23:00,
2013-03-10 05:26:00,34.5,25.0,30.28,ENE,73,0.0,0.0,68,0.00,CLR,,0.00,WeatherDisplay:10.37,2013-03-10 09:26:00,
2013-03-10 05:28:00,32.6,23.2,30.28,ENE,73,0.0,0.0,68,0.00,CLR,,0.00,WeatherDisplay:10.37,2013-03-10 09:28:00,
2013-03-10 05:29:00,32.6,23.2,30.28,ENE,73,0.0,0.0,68,0.00,CLR,,0.00,WeatherDisplay:10.37,2013-03-10 09:29:00,
2013-03-10 05:32:00,33.7,24.6,30.28,ENE,73,0.0,0.0,69,0.00,CLR,,0.00,WeatherDisplay:10.37,2013-03-10 09:32:00,
2013-03-10 05:33:00,33.7,25.0,30.28,ENE,73,0.0,0.0,70,0.00,CLR,,0.00,WeatherDisplay:10.37,2013-03-10 09:33:00,
2013-03-10 05:34:00,33.6,24.9,30.28,ENE,73,0.0,0.0,70,0.00,CLR,,0.00,WeatherDisplay:10.37,2013-03-10 09:34:00,
2013-03-10 05:37:00,31.2,22.2,30.28,ENE,73,0.0,0.0,69,0.00,CLR,,0.00,WeatherDisplay:10.37,2013-03-10 09:37:00,
2013-03-10 05:38:00,31.3,22.3,30.28,ENE,73,0.0,0.0,69,0.00,CLR,,0.00,WeatherDisplay:10.37,2013-03-10 09:38:00,
2013-03-10 05:39:00,32.0,23.3,30.28,ENE,73,0.0,0.0,70,0.00,CLR,,0.00,WeatherDisplay:10.37,2013-03-10 09:39:00,
2013-03-10 05:42:00,34.1,26.0,30.28,ENE,73,0.0,0.0,72,0.00,CLR,,0.00,WeatherDisplay:10.37,2013-03-10 09:42:00,
2013-03-10 05:43:00,32.7,24.7,30.28,ENE,73,0.0,0.0,72,0.00,CLR,,0.00,WeatherDisplay:10.37,2013-03-10 09:43:00,
2013-03-10 05:44:00,32.8,24.1,30.28,ENE,73,0.0,0.0,70,0.00,CLR,,0.00,WeatherDisplay:10.37,2013-03-10 09:44:00,
2013-03-10 05:47:00,32.1,22.4,30.27,ENE,73,0.0,0.0,67,0.00,CLR,,0.00,WeatherDisplay:10.37,2013-03-10 09:47:00,
2013-03-10 05:49:00,31.5,22.1,30.27,ENE,73,0.0,0.0,68,0.00,CLR,,0.00,WeatherDisplay:10.37,2013-03-10 09:49:00,
2013-03-10 05:52:00,31.2,22.9,30.27,ENE,73,0.0,0.0,71,0.00,CLR,,0.00,WeatherDisplay:10.37,2013-03-10 09:52:00,
2013-03-10 05:54:00,31.2,23.2,30.27,ENE,73,0.0,0.0,72,0.00,CLR,,0.00,WeatherDisplay:10.37,2013-03-10 09:54:00,
2013-03-10 05:55:00,31.2,23.9,30.27,ENE,73,0.0,0.0,74,0.00,CLR,,0.00,WeatherDisplay:10.37,2013-03-10 09:55:00,
2013-03-10 05:58:00,31.2,24.5,30.27,ENE,73,0.0,0.0,76,0.00,CLR,,0.00,WeatherDisplay:10.37,2013-03-10 09:58:00,
2013-03-10 05:59:00,31.2,24.5,30.27,ENE,73,0.0,0.0,76,0.00,CLR,,0.00,WeatherDisplay:10.37,2013-03-10 09:59:00,
2013-03-10 06:00:00,31.2,24.5,30.27,ENE,73,0.0,0.0,76,0.00,CLR,,0.00,WeatherDisplay:10.37,2013-03-10 10:00:00,
2013-03-10 06:03:00,31.2,24.5,30.27,ENE,73,0.0,0.0,76,0.00,CLR,,0.00,WeatherDisplay:10.37,2013-03-10 10:03:00,
2013-03-10 06:04:00,29.0,22.4,30.27,ENE,73,0.0,0.0,76,0.00,CLR,,0.00,WeatherDisplay:10.37,2013-03-10 10:04:00,
2013-03-10 06:05:00,28.9,22.3,30.27,ENE,73,0.0,0.0,76,0.00,CLR,,0.00,WeatherDisplay:10.37,2013-03-10 10:05:00,
2013-03-10 06:08:00,29.3,23.3,30.28,ENE,73,0.0,0.0,78,0.00,CLR,,0.00,WeatherDisplay:10.37,2013-03-10 10:08:00,
2013-03-10 06:09:00,29.0,23.0,30.28,ENE,73,0.0,0.0,78,0.00,CLR,,0.00,WeatherDisplay:10.37,2013-03-10 10:09:00,
2013-03-10 06:10:00,30.0,24.0,30.28,ENE,73,0.0,0.0,78,0.00,CLR,,0.00,WeatherDisplay:10.37,2013-03-10 10:10:00,
2013-03-10 06:13:00,30.8,24.7,30.28,ENE,73,0.0,0.0,78,0.00,CLR,,0.00,WeatherDisplay:10.37,2013-03-10 10:13:00,
2013-03-10 06:14:00,30.3,24.3,30.28,ENE,73,0.0,0.0,78,0.00,CLR,,0.00,WeatherDisplay:10.37,2013-03-10 10:14:00,
2013-03-10 06:15:00,29.9,23.9,30.28,ENE,73,0.0,0.0,78,0.00,CLR,,0.00,WeatherDisplay:10.37,2013-03-10 10:15:00,
2013-03-10 06:18:00,31.1,24.7,30.28,ENE,73,0.0,0.0,77,0.00,CLR,,0.00,WeatherDisplay:10.37,2013-03-10 10:18:00,
2013-03-10 06:19:00,31.1,25.0,30.28,ENE,73,0.0,0.0,78,0.00,CLR,,0.00,WeatherDisplay:10.37,2013-03-10 10:19:00,
2013-03-10 06:20:00,31.1,25.0,30.28,ENE,73,0.0,0.0,78,0.00,CLR,,0.00,WeatherDisplay:10.37,2013-03-10 10:20:00,
2013-03-10 06:23:00,33.7,27.3,30.28,ENE,73,0.0,0.0,77,0.00,CLR,,0.00,WeatherDisplay:10.37,2013-03-10 10:23:00,
2013-03-10 06:25:00,33.5,27.1,30.28,ENE,73,0.0,0.0,77,0.00,CLR,,0.00,WeatherDisplay:10.37,2013-03-10 10:25:00,
2013-03-10 06:28:00,33.1,26.4,30.27,ENE,73,0.0,0.0,76,0.00,CLR,,0.00,WeatherDisplay:10.37,2013-03-10 10:28:00,
2013-03-10 06:29:00,33.1,26.0,30.27,ENE,73,0.0,0.0,75,0.00,CLR,,0.00,WeatherDisplay:10.37,2013-03-10 10:29:00,
2013-03-10 06:30:00,32.8,25.4,30.27,ENE,73,0.0,0.0,74,0.00,CLR,,0.00,WeatherDisplay:10.37,2013-03-10 10:30:00,
2013-03-10 06:34:00,31.8,23.5,30.28,ENE,73,0.0,0.0,71,0.00,CLR,,0.00,WeatherDisplay:10.37,2013-03-10 10:34:00,
2013-03-10 06:35:00,31.0,22.7,30.28,ENE,73,0.0,0.0,71,0.00,CLR,,0.00,WeatherDisplay:10.37,2013-03-10 10:35:00,
2013-03-10 06:39:00,31.0,23.0,30.28,ENE,73,0.0,0.0,72,0.00,CLR,,0.00,WeatherDisplay:10.37,2013-03-10 10:39:00,
2013-03-10 06:40:00,31.3,23.6,30.28,ENE,73,0.0,0.0,73,0.00,CLR,,0.00,WeatherDisplay:10.37,2013-03-10 10:40:00,
2013-03-10 06:41:00,31.5,23.8,30.28,ENE,73,0.0,0.0,73,0.00,CLR,,0.00,WeatherDisplay:10.37,2013-03-10 10:41:00,
2013-03-10 06:44:00,33.2,25.5,30.28,ENE,73,0.0,0.0,73,0.00,CLR,,0.00,WeatherDisplay:10.37,2013-03-10 10:44:00,
2013-03-10 06:45:00,33.2,25.5,30.28,ENE,73,0.0,0.0,73,0.00,CLR,,0.00,WeatherDisplay:10.37,2013-03-10 10:45:00,
2013-03-10 06:46:00,33.7,26.0,30.28,ENE,73,0.0,0.0,73,0.00,CLR,,0.00,WeatherDisplay:10.37,2013-03-10 10:46:00,
2013-03-10 06:49:00,33.4,26.6,30.28,ENE,73,0.0,0.0,76,0.00,CLR,,0.00,WeatherDisplay:10.37,2013-03-10 10:49:00,
2013-03-10 06:50:00,33.4,26.6,30.28,ENE,73,0.0,0.0,76,0.00,CLR,,0.00,WeatherDisplay:10.37,2013-03-10 10:50:00,
2013-03-10 06:51:00,33.4,26.6,30.28,ENE,73,0.0,0.0,76,0.00,CLR,,0.00,WeatherDisplay:10.37,2013-03-10 10:51:00,
2013-03-10 06:54:00,32.2,25.2,30.28,ENE,73,0.0,0.0,75,0.00,CLR,,0.00,WeatherDisplay:10.37,2013-03-10 10:54:00,
2013-03-10 06:55:00,31.9,24.9,30.28,ENE,73,0.0,0.0,75,0.00,CLR,,0.00,WeatherDisplay:10.37,2013-03-10 10:55:00,
2013-03-10 06:56:00,31.7,24.7,30.28,ENE,73,0.0,0.0,75,0.00,CLR,,0.00,WeatherDisplay:10.37,2013-03-10 10:56:00,
2013-03-10 06:59:00,31.8,24.5,30.28,ENE,73,0.0,0.0,74,0.00,CLR,,0.00,WeatherDisplay:10.37,2013-03-10 10:59:00,
2013-03-10 07:00:00,31.4,24.1,30.28,ENE,73,0.0,0.0,74,0.00,CLR,,0.00,WeatherDisplay:10.37,2013-03-10 11:00:00,
2013-03-10 07:01:00,31.9,24.2,30.28,ENE,73,0.0,0.0,73,0.00,CLR,,0.00,WeatherDisplay:10.37,2013-03-10 11:01:00,
2013-03-10 07:02:00,32.5,24.8,30.28,ENE,73,0.0,0.0,73,0.00,CLR,,0.00,WeatherDisplay:10.37,2013-03-10 11:02:00,
2013-03-10 07:04:00,31.8,24.5,30.28,ENE,73,0.0,0.0,74,0.00,CLR,,0.00,WeatherDisplay:10.37,2013-03-10 11:04:00,
2013-03-10 07:05:00,31.6,24.3,30.28,ENE,73,0.0,0.0,74,0.00,CLR,,0.00,WeatherDisplay:10.37,2013-03-10 11:05:00,
2013-03-10 07:06:00,32.2,25.2,30.28,ENE,73,0.0,0.0,75,0.00,CLR,,0.00,WeatherDisplay:10.37,2013-03-10 11:06:00,
2013-03-10 07:07:00,32.6,25.6,30.28,ENE,73,0.0,0.0,75,0.00,CLR,,0.00,WeatherDisplay:10.37,2013-03-10 11:07:00,
2013-03-10 07:09:00,32.6,26.2,30.28,ENE,73,0.0,0.0,77,0.00,CLR,,0.00,WeatherDisplay:10.37,2013-03-10 11:09:00,
2013-03-10 07:10:00,33.6,27.2,30.28,ENE,73,0.0,0.0,77,0.00,CLR,,0.00,WeatherDisplay:10.37,2013-03-10 11:10:00,
2013-03-10 07:11:00,34.1,27.0,30.28,ENE,73,0.0,0.0,75,0.00,CLR,,0.00,WeatherDisplay:10.37,2013-03-10 11:11:00,
2013-03-10 07:12:00,34.1,26.7,30.28,ENE,73,0.0,0.0,74,0.00,CLR,,0.00,WeatherDisplay:10.37,2013-03-10 11:12:00,
2013-03-10 07:15:00,34.1,27.0,30.28,ENE,73,0.0,0.0,75,0.00,CLR,,0.00,WeatherDisplay:10.37,2013-03-10 11:15:00,
2013-03-10 07:16:00,31.1,24.7,30.28,ENE,73,0.0,0.0,77,0.00,CLR,,0.00,WeatherDisplay:10.37,2013-03-10 11:16:00,
2013-03-10 07:17:00,31.1,24.7,30.28,ENE,73,0.0,0.0,77,0.00,CLR,,0.00,WeatherDisplay:10.37,2013-03-10 11:17:00,
2013-03-10 07:20:00,30.0,24.3,30.28,ENE,73,0.0,0.0,79,0.00,CLR,,0.00,WeatherDisplay:10.37,2013-03-10 11:20:00,
2013-03-10 07:21:00,29.6,23.9,30.28,ENE,73,0.0,0.0,79,0.00,CLR,,0.00,WeatherDisplay:10.37,2013-03-10 11:21:00,
2013-03-10 07:22:00,29.6,24.2,30.28,ENE,73,0.0,0.0,80,0.00,CLR,,0.00,WeatherDisplay:10.37,2013-03-10 11:22:00,
2013-03-10 07:25:00,29.1,24.0,30.28,ENE,73,0.0,0.0,81,0.00,CLR,,0.00,WeatherDisplay:10.37,2013-03-10 11:25:00,
2013-03-10 07:27:00,29.4,24.3,30.28,ENE,73,0.0,0.0,81,0.00,CLR,,0.00,WeatherDisplay:10.37,2013-03-10 11:27:00,
2013-03-10 07:28:00,28.4,23.3,30.28,ENE,73,0.0,0.0,81,0.00,CLR,,0.00,WeatherDisplay:10.37,2013-03-10 11:28:00,
2013-03-10 07:30:00,29.4,24.0,30.28,ENE,73,0.0,0.0,80,0.00,CLR,,0.00,WeatherDisplay:10.37,2013-03-10 11:30:00,
2013-03-10 07:32:00,29.7,24.3,30.28,ENE,73,0.0,0.0,80,0.00,CLR,,0.00,WeatherDisplay:10.37,2013-03-10 11:32:00,
2013-03-10 07:33:00,32.2,27.0,30.28,ENE,73,0.0,0.0,81,0.00,CLR,,0.00,WeatherDisplay:10.37,2013-03-10 11:33:00,
2013-03-10 07:35:00,32.2,27.0,30.28,ENE,73,0.0,0.0,81,0.00,CLR,,0.00,WeatherDisplay:10.37,2013-03-10 11:35:00,
2013-03-10 07:37:00,31.8,26.6,30.28,ENE,73,0.0,0.0,81,0.00,CLR,,0.00,WeatherDisplay:10.37,2013-03-10 11:37:00,
2013-03-10 07:38:00,32.1,26.9,30.28,ENE,73,0.0,0.0,81,0.00,CLR,,0.00,WeatherDisplay:10.37,2013-03-10 11:38:00,
2013-03-10 07:40:00,32.1,26.6,30.28,ENE,73,0.0,0.0,80,0.00,CLR,,0.00,WeatherDisplay:10.37,2013-03-10 11:40:00,
2013-03-10 07:41:00,32.1,26.6,30.28,ENE,73,0.0,0.0,80,0.00,CLR,,0.00,WeatherDisplay:10.37,2013-03-10 11:41:00,
2013-03-10 07:42:00,31.8,26.3,30.28,ENE,73,0.0,0.0,80,0.00,CLR,,0.00,WeatherDisplay:10.37,2013-03-10 11:42:00,
2013-03-10 07:43:00,31.7,25.9,30.28,ENE,73,0.0,0.0,79,0.00,CLR,,0.00,WeatherDisplay:10.37,2013-03-10 11:43:00,
2013-03-10 07:46:00,30.1,25.0,30.28,ENE,73,0.0,0.0,81,0.00,CLR,,0.00,WeatherDisplay:10.37,2013-03-10 11:46:00,
2013-03-10 07:47:00,30.6,25.2,30.28,ENE,73,0.0,0.0,80,0.00,CLR,,0.00,WeatherDisplay:10.37,2013-03-10 11:47:00,
2013-03-10 07:48:00,29.9,24.5,30.28,ENE,73,0.0,0.0,80,0.00,CLR,,0.00,WeatherDisplay:10.37,2013-03-10 11:48:00,
2013-03-10 07:51:00,30.8,25.4,30.28,ENE,73,0.0,0.0,80,0.00,CLR,,0.00,WeatherDisplay:10.37,2013-03-10 11:51:00,
2013-03-10 07:52:00,30.4,25.0,30.28,ENE,73,0.0,0.0,80,0.00,CLR,,0.00,WeatherDisplay:10.37,2013-03-10 11:52:00,
2013-03-10 07:53:00,29.5,24.1,30.28,ENE,73,0.0,0.0,80,0.00,CLR,,0.00,WeatherDisplay:10.37,2013-03-10 11:53:00,
2013-03-10 07:56:00,29.2,24.4,30.28,ENE,73,0.0,0.0,82,0.00,CLR,,0.00,WeatherDisplay:10.37,2013-03-10 11:56:00,
2013-03-10 07:57:00,30.0,25.2,30.29,ENE,73,0.0,0.0,82,0.00,CLR,,0.00,WeatherDisplay:10.37,2013-03-10 11:57:00,
2013-03-10 07:58:00,30.0,25.5,30.28,ENE,73,0.0,0.0,83,0.00,CLR,,0.00,WeatherDisplay:10.37,2013-03-10 11:58:00,
2013-03-10 08:01:00,30.0,25.8,30.28,ENE,73,0.0,0.0,84,0.00,CLR,,0.00,WeatherDisplay:10.37,2013-03-10 12:01:00,
2013-03-10 08:02:00,33.1,29.4,30.28,ENE,73,0.0,0.0,86,0.00,CLR,,0.00,WeatherDisplay:10.37,2013-03-10 12:02:00,
2013-03-10 08:03:00,33.1,29.1,30.28,ENE,73,0.0,0.0,85,0.00,CLR,,0.00,WeatherDisplay:10.37,2013-03-10 12:03:00,
2013-03-10 08:06:00,32.5,28.2,30.28,ENE,73,0.0,0.0,84,0.00,CLR,,0.00,WeatherDisplay:10.37,2013-03-10 12:06:00,
2013-03-10 08:07:00,32.5,28.2,30.28,ENE,73,0.0,0.0,84,0.00,CLR,,0.00,WeatherDisplay:10.37,2013-03-10 12:07:00,
2013-03-10 08:08:00,30.9,26.6,30.28,ENE,73,0.0,0.0,84,0.00,CLR,,0.00,WeatherDisplay:10.37,2013-03-10 12:08:00,
2013-03-10 08:09:00,31.1,26.5,30.28,ENE,73,0.0,0.0,83,0.00,CLR,,0.00,WeatherDisplay:10.37,2013-03-10 12:09:00,
2013-03-10 08:11:00,31.8,27.2,30.28,ENE,73,0.0,0.0,83,0.00,CLR,,0.00,WeatherDisplay:10.37,2013-03-10 12:11:00,
2013-03-10 08:12:00,32.1,27.5,30.28,ENE,73,0.0,0.0,83,0.00,CLR,,0.00,WeatherDisplay:10.37,2013-03-10 12:12:00,
2013-03-10 08:13:00,31.9,25.8,30.28,ENE,73,0.0,0.0,78,0.00,CLR,,0.00,WeatherDisplay:10.37,2013-03-10 12:13:00,
2013-03-10 08:15:00,32.8,24.4,30.29,ENE,73,0.0,0.0,71,0.00,CLR,,0.00,WeatherDisplay:10.37,2013-03-10 12:15:00,
2013-03-10 08:16:00,33.0,24.3,30.29,ENE,73,0.0,0.0,70,0.00,CLR,,0.00,WeatherDisplay:10.37,2013-03-10 12:16:00,
2013-03-10 08:18:00,31.3,23.0,30.29,ENE,73,0.0,0.0,71,0.00,CLR,,0.00,WeatherDisplay:10.37,2013-03-10 12:18:00,
2013-03-10 08:20:00,31.7,24.0,30.29,ENE,73,0.0,0.0,73,0.00,CLR,,0.00,WeatherDisplay:10.37,2013-03-10 12:20:00,
2013-03-10 08:21:00,31.1,23.5,30.29,ENE,73,0.0,0.0,73,0.00,CLR,,0.00,WeatherDisplay:10.37,2013-03-10 12:21:00,
2013-03-10 08:22:00,31.8,24.1,30.29,ENE,73,0.0,0.0,73,0.00,CLR,,0.00,WeatherDisplay:10.37,2013-03-10 12:22:00,
2013-03-10 08:23:00,31.7,23.7,30.29,ENE,73,0.0,0.0,72,0.00,CLR,,0.00,WeatherDisplay:10.37,2013-03-10 12:23:00,
2013-03-10 08:25:00,32.1,24.4,30.29,ENE,73,0.0,0.0,73,0.00,CLR,,0.00,WeatherDisplay:10.37,2013-03-10 12:25:00,
2013-03-10 08:27:00,32.1,24.7,30.29,ENE,73,0.0,0.0,74,0.00,CLR,,0.00,WeatherDisplay:10.37,2013-03-10 12:27:00,
2013-03-10 08:28:00,34.0,26.3,30.29,ENE,73,0.0,0.0,73,0.00,CLR,,0.00,WeatherDisplay:10.37,2013-03-10 12:28:00,
2013-03-10 08:30:00,34.9,27.5,30.29,ENE,73,0.0,0.0,74,0.00,CLR,,0.00,WeatherDisplay:10.37,2013-03-10 12:30:00,
2013-03-10 08:32:00,35.5,28.0,30.29,ENE,73,0.0,0.0,74,0.00,CLR,,0.00,WeatherDisplay:10.37,2013-03-10 12:32:00,
2013-03-10 08:34:00,36.0,28.2,30.29,ENE,73,0.0,0.0,73,0.00,CLR,,0.00,WeatherDisplay:10.37,2013-03-10 12:34:00,
2013-03-10 08:35:00,37.3,28.8,30.29,ENE,73,0.0,0.0,71,0.00,CLR,,0.00,WeatherDisplay:10.37,2013-03-10 12:35:00,
2013-03-10 08:37:00,38.0,28.7,30.29,ENE,73,0.0,0.0,69,0.00,CLR,,0.00,WeatherDisplay:10.37,2013-03-10 12:37:00,
2013-03-10 08:39:00,38.7,20.7,30.29,ENE,73,0.0,0.0,48,0.00,CLR,,0.00,WeatherDisplay:10.37,2013-03-10 12:39:00,
2013-03-10 08:40:00,38.6,20.1,30.29,ENE,73,0.0,0.0,47,0.00,CLR,,0.00,WeatherDisplay:10.37,2013-03-10 12:40:00,
2013-03-10 08:42:00,38.7,21.2,30.29,ENE,73,0.0,0.0,49,0.00,CLR,,0.00,WeatherDisplay:10.37,2013-03-10 12:42:00,
2013-03-10 08:44:00,38.9,20.4,30.30,ENE,73,0.0,0.0,47,0.00,CLR,,0.00,WeatherDisplay:10.37,2013-03-10 12:44:00,
2013-03-10 08:45:00,39.1,20.5,30.30,ENE,73,0.0,0.0,47,0.00,CLR,,0.00,WeatherDisplay:10.37,2013-03-10 12:45:00,
2013-03-10 08:47:00,38.7,20.2,30.30,ENE,73,0.0,0.0,47,0.00,CLR,,0.00,WeatherDisplay:10.37,2013-03-10 12:47:00,
2013-03-10 08:49:00,37.9,20.9,30.30,ENE,73,0.0,0.0,50,0.00,CLR,,0.00,WeatherDisplay:10.37,2013-03-10 12:49:00,
2013-03-10 08:50:00,37.3,20.8,30.30,ENE,73,0.0,0.0,51,0.00,CLR,,0.00,WeatherDisplay:10.37,2013-03-10 12:50:00,
2013-03-10 08:52:00,37.1,21.1,30.30,ENE,73,0.0,0.0,52,0.00,CLR,,0.00,WeatherDisplay:10.37,2013-03-10 12:52:00,
2013-03-10 08:55:00,36.5,21.4,30.30,ENE,73,0.0,0.0,54,0.00,CLR,,0.00,WeatherDisplay:10.37,2013-03-10 12:55:00,
2013-03-10 08:57:00,35.9,20.0,30.31,ENE,73,0.0,0.0,52,0.00,CLR,,0.00,WeatherDisplay:10.37,2013-03-10 12:57:00,
2013-03-10 09:00:00,35.7,20.2,30.31,ENE,73,0.0,0.0,53,0.00,CLR,,0.00,WeatherDisplay:10.37,2013-03-10 13:00:00,
2013-03-10 09:02:00,36.4,21.3,30.31,ENE,73,0.0,0.0,54,0.00,CLR,,0.00,WeatherDisplay:10.37,2013-03-10 13:02:00,
2013-03-10 09:05:00,36.6,21.5,30.31,ENE,73,0.0,0.0,54,0.00,CLR,,0.00,WeatherDisplay:10.37,2013-03-10 13:05:00,
2013-03-10 09:06:00,37.2,21.6,30.31,ENE,73,0.0,0.0,53,0.00,CLR,,0.00,WeatherDisplay:10.37,2013-03-10 13:06:00,
2013-03-10 09:07:00,37.2,22.1,30.31,ENE,73,0.0,0.0,54,0.00,CLR,,0.00,WeatherDisplay:10.37,2013-03-10 13:07:00,
2013-03-10 09:10:00,38.0,22.4,30.31,ENE,73,0.0,0.0,53,0.00,CLR,,0.00,WeatherDisplay:10.37,2013-03-10 13:10:00,
2013-03-10 09:11:00,38.1,22.5,30.30,ENE,73,0.0,0.0,53,0.00,CLR,,0.00,WeatherDisplay:10.37,2013-03-10 13:11:00,
2013-03-10 09:12:00,38.7,23.0,30.31,ENE,73,0.0,0.0,53,0.00,CLR,,0.00,WeatherDisplay:10.37,2013-03-10 13:12:00,
2013-03-10 09:16:00,41.1,21.9,30.31,ENE,73,0.0,0.0,46,0.00,CLR,,0.00,WeatherDisplay:10.37,2013-03-10 13:16:00,
2013-03-10 09:17:00,41.7,17.3,30.31,ENE,73,0.0,0.0,37,0.00,CLR,,0.00,WeatherDisplay:10.37,2013-03-10 13:17:00,
2013-03-10 09:21:00,42.5,18.6,30.31,ENE,73,0.0,0.0,38,0.00,CLR,,0.00,WeatherDisplay:10.37,2013-03-10 13:21:00,
2013-03-10 09:22:00,43.0,19.1,30.31,ENE,73,0.0,0.0,38,0.00,CLR,,0.00,WeatherDisplay:10.37,2013-03-10 13:22:00,
2013-03-10 09:26:00,43.5,16.3,30.32,ENE,73,0.0,0.0,33,0.00,CLR,,0.00,WeatherDisplay:10.37,2013-03-10 13:26:00,
2013-03-10 09:27:00,43.4,16.2,30.31,ENE,73,0.0,0.0,33,0.00,CLR,,0.00,WeatherDisplay:10.37,2013-03-10 13:27:00,
2013-03-10 09:31:00,42.4,17.9,30.31,ENE,73,0.0,0.0,37,0.00,CLR,,0.00,WeatherDisplay:10.37,2013-03-10 13:31:00,
2013-03-10 09:32:00,42.1,18.9,30.31,ENE,73,0.0,0.0,39,0.00,CLR,,0.00,WeatherDisplay:10.37,2013-03-10 13:32:00,
2013-03-10 09:36:00,41.5,18.9,30.32,ENE,73,0.0,0.0,40,0.00,CLR,,0.00,WeatherDisplay:10.37,2013-03-10 13:36:00,
2013-03-10 09:37:00,41.7,19.1,30.32,ENE,73,0.0,0.0,40,0.00,CLR,,0.00,WeatherDisplay:10.37,2013-03-10 13:37:00,
2013-03-10 09:38:00,41.6,19.0,30.32,ENE,73,0.0,0.0,40,0.00,CLR,,0.00,WeatherDisplay:10.37,2013-03-10 13:38:00,
2013-03-10 09:41:00,41.8,19.2,30.32,ENE,73,0.0,0.0,40,0.00,CLR,,0.00,WeatherDisplay:10.37,2013-03-10 13:41:00,
2013-03-10 09:42:00,41.4,18.9,30.32,ENE,73,0.0,0.0,40,0.00,CLR,,0.00,WeatherDisplay:10.37,2013-03-10 13:42:00,
2013-03-10 09:43:00,41.6,19.0,30.32,ENE,73,0.0,0.0,40,0.00,CLR,,0.00,WeatherDisplay:10.37,2013-03-10 13:43:00,
2013-03-10 09:46:00,42.1,20.1,30.32,ENE,73,0.0,0.0,41,0.00,CLR,,0.00,WeatherDisplay:10.37,2013-03-10 13:46:00,
2013-03-10 09:47:00,42.4,19.8,30.32,ENE,73,0.0,0.0,40,0.00,CLR,,0.00,WeatherDisplay:10.37,2013-03-10 13:47:00,
2013-03-10 09:48:00,42.0,18.2,30.32,ENE,73,0.0,0.0,38,0.00,CLR,,0.00,WeatherDisplay:10.37,2013-03-10 13:48:00,
2013-03-10 09:52:00,42.9,17.7,30.32,ENE,73,0.0,0.0,36,0.00,CLR,,0.00,WeatherDisplay:10.37,2013-03-10 13:52:00,
2013-03-10 09:53:00,43.1,17.9,30.32,ENE,73,0.0,0.0,36,0.00,CLR,,0.00,WeatherDisplay:10.37,2013-03-10 13:53:00,
2013-03-10 09:57:00,43.6,17.7,30.31,ENE,73,0.0,0.0,35,0.00,CLR,,0.00,WeatherDisplay:10.37,2013-03-10 13:57:00,
2013-03-10 09:58:00,44.3,18.3,30.31,ENE,73,0.0,0.0,35,0.00,CLR,,0.00,WeatherDisplay:10.37,2013-03-10 13:58:00,
2013-03-10 10:02:00,46.1,15.6,30.31,ENE,73,0.0,0.0,29,0.00,CLR,,0.00,WeatherDisplay:10.37,2013-03-10 14:02:00,
2013-03-10 10:03:00,46.4,14.2,30.30,ENE,73,0.0,0.0,27,0.00,CLR,,0.00,WeatherDisplay:10.37,2013-03-10 14:03:00,
2013-03-10 10:04:00,46.7,14.4,30.30,ENE,73,0.0,0.0,27,0.00,CLR,,0.00,WeatherDisplay:10.37,2013-03-10 14:04:00,
2013-03-10 10:07:00,47.4,12.4,30.31,ENE,73,0.0,0.0,24,0.00,CLR,,0.00,WeatherDisplay:10.37,2013-03-10 14:07:00,
2013-03-10 10:08:00,47.4,12.4,30.31,ENE,73,0.0,0.0,24,0.00,CLR,,0.00,WeatherDisplay:10.37,2013-03-10 14:08:00,
2013-03-10 10:09:00,47.7,11.6,30.31,ENE,73,0.0,0.0,23,0.00,CLR,,0.00,WeatherDisplay:10.37,2013-03-10 14:09:00,
2013-03-10 10:13:00,48.4,12.2,30.31,ENE,73,0.0,0.0,23,0.00,CLR,,0.00,WeatherDisplay:10.37,2013-03-10 14:13:00,
2013-03-10 10:14:00,48.5,12.3,30.31,ENE,73,0.0,0.0,23,0.00,CLR,,0.00,WeatherDisplay:10.37,2013-03-10 14:14:00,
2013-03-10 10:18:00,49.5,8.9,30.31,ENE,73,0.0,0.0,19,0.00,CLR,,0.00,WeatherDisplay:10.37,2013-03-10 14:18:00,
2013-03-10 10:19:00,50.2,10.6,30.31,ENE,73,0.0,0.0,20,0.00,CLR,,0.00,WeatherDisplay:10.37,2013-03-10 14:19:00,
2013-03-10 10:23:00,50.8,3.2,30.31,ENE,73,0.0,0.0,14,0.00,CLR,,0.00,WeatherDisplay:10.37,2013-03-10 14:23:00,
2013-03-10 10:24:00,50.8,4.7,30.31,ENE,73,0.0,0.0,15,0.00,CLR,,0.00,WeatherDisplay:10.37,2013-03-10 14:24:00,
2013-03-10 10:28:00,51.1,6.4,30.31,ENE,73,0.0,0.0,16,0.00,CLR,,0.00,WeatherDisplay:10.37,2013-03-10 14:28:00,
2013-03-10 10:29:00,51.0,6.3,30.31,ENE,73,0.0,0.0,16,0.00,CLR,,0.00,WeatherDisplay:10.37,2013-03-10 14:29:00,
2013-03-10 10:30:00,50.9,7.6,30.31,ENE,73,0.0,0.0,17,0.00,CLR,,0.00,WeatherDisplay:10.37,2013-03-10 14:30:00,
2013-03-10 10:33:00,51.7,8.2,30.31,ENE,73,0.0,0.0,17,0.00,CLR,,0.00,WeatherDisplay:10.37,2013-03-10 14:33:00,
2013-03-10 10:34:00,51.2,7.8,30.31,ENE,73,0.0,0.0,17,0.00,CLR,,0.00,WeatherDisplay:10.37,2013-03-10 14:34:00,
2013-03-10 10:35:00,51.0,7.6,30.31,ENE,73,0.0,0.0,17,0.00,CLR,,0.00,WeatherDisplay:10.37,2013-03-10 14:35:00,
2013-03-10 10:38:00,51.2,10.3,30.31,ENE,73,0.0,0.0,19,0.00,CLR,,0.00,WeatherDisplay:10.37,2013-03-10 14:38:00,
2013-03-10 10:39:00,50.7,7.4,30.30,ENE,73,0.0,0.0,17,0.00,CLR,,0.00,WeatherDisplay:10.37,2013-03-10 14:39:00,
2013-03-10 10:40:00,51.1,6.4,30.30,ENE,73,0.0,0.0,16,0.00,CLR,,0.00,WeatherDisplay:10.37,2013-03-10 14:40:00,
2013-03-10 10:43:00,50.9,8.8,30.31,ENE,73,0.0,0.0,18,0.00,CLR,,0.00,WeatherDisplay:10.37,2013-03-10 14:43:00,
2013-03-10 10:44:00,51.3,9.2,30.31,ENE,73,0.0,0.0,18,0.00,CLR,,0.00,WeatherDisplay:10.37,2013-03-10 14:44:00,
2013-03-10 10:45:00,52.0,8.5,30.31,ENE,73,0.0,0.0,17,0.00,CLR,,0.00,WeatherDisplay:10.37,2013-03-10 14:45:00,
2013-03-10 10:48:00,50.9,6.2,30.31,ENE,73,0.0,0.0,16,0.00,CLR,,0.00,WeatherDisplay:10.37,2013-03-10 14:48:00,
2013-03-10 10:50:00,50.7,6.1,30.31,ENE,73,0.0,0.0,16,0.00,CLR,,0.00,WeatherDisplay:10.37,2013-03-10 14:50:00,
2013-03-10 10:53:00,50.4,8.4,30.30,WSW,256,0.0,0.0,18,0.00,CLR,,0.00,WeatherDisplay:10.37,2013-03-10 14:53:00,
2013-03-10 10:54:00,50.2,8.2,30.30,WSW,256,0.0,0.0,18,0.00,CLR,,0.00,WeatherDisplay:10.37,2013-03-10 14:54:00,
2013-03-10 10:55:00,50.5,7.2,30.30,WSW,256,0.0,0.0,17,0.00,CLR,,0.00,WeatherDisplay:10.37,2013-03-10 14:55:00,
2013-03-10 10:59:00,50.2,5.6,30.30,WSW,256,0.0,0.0,16,0.00,CLR,,0.00,WeatherDisplay:10.37,2013-03-10 14:59:00,
2013-03-10 11:00:00,50.1,5.6,30.30,WSW,256,0.0,0.0,16,0.00,CLR,,0.00,WeatherDisplay:10.37,2013-03-10 15:00:00,
2013-03-10 11:03:00,50.7,1.5,30.30,South,175,1.6,4.4,13,0.00,CLR,,0.00,WeatherDisplay:10.37,2013-03-10 15:03:00,
2013-03-10 11:05:00,51.7,5.4,30.30,South,175,0.0,0.0,15,0.00,CLR,,0.00,WeatherDisplay:10.37,2013-03-10 15:05:00,
2013-03-10 11:09:00,50.8,-1.9,30.30,South,175,0.0,0.0,11,0.00,CLR,,0.00,WeatherDisplay:10.37,2013-03-10 15:09:00,
2013-03-10 11:10:00,50.8,-0.1,30.31,SE,133,5.9,8.1,12,0.00,CLR,,0.00,WeatherDisplay:10.37,2013-03-10 15:10:00,
2013-03-10 11:14:00,50.7,-0.2,30.30,ESE,112,0.0,0.0,12,0.00,CLR,,0.00,WeatherDisplay:10.37,2013-03-10 15:14:00,
2013-03-10 11:15:00,50.6,-2.1,30.30,ESE,112,1.0,4.6,11,0.00,CLR,,0.00,WeatherDisplay:10.37,2013-03-10 15:15:00,
2013-03-10 11:16:00,50.8,-1.9,30.30,SE,128,0.8,5.1,11,0.00,CLR,,0.00,WeatherDisplay:10.37,2013-03-10 15:16:00,
2013-03-10 11:18:00,51.3,-3.6,30.30,ESE,104,2.1,7.0,10,0.00,CLR,,0.00,WeatherDisplay:10.37,2013-03-10 15:18:00,
2013-03-10 11:20:00,51.0,-3.8,30.30,ESE,119,3.5,6.9,10,0.00,CLR,,0.00,WeatherDisplay:10.37,2013-03-10 15:20:00,
2013-03-10 11:21:00,50.7,-2.0,30.30,ESE,119,1.5,6.9,11,0.00,CLR,,0.00,WeatherDisplay:10.37,2013-03-10 15:21:00,
2013-03-10 11:24:00,50.7,-2.0,30.30,ESE,119,0.0,0.0,11,0.00,CLR,,0.00,WeatherDisplay:10.37,2013-03-10 15:24:00,
2013-03-10 11:25:00,51.2,-1.6,30.30,ENE,78,1.3,5.8,11,0.00,CLR,,0.00,WeatherDisplay:10.37,2013-03-10 15:25:00,
2013-03-10 11:26:00,51.2,-1.6,30.30,ENE,78,0.0,0.0,11,0.00,CLR,,0.00,WeatherDisplay:10.37,2013-03-10 15:26:00,
2013-03-10 11:29:00,51.2,-1.6,30.30,East,80,1.7,8.1,11,0.00,CLR,,0.00,WeatherDisplay:10.37,2013-03-10 15:29:00,
2013-03-10 11:30:00,50.7,-2.0,30.30,East,80,0.0,0.0,11,0.00,CLR,,0.00,WeatherDisplay:10.37,2013-03-10 15:30:00,
2013-03-10 11:31:00,50.8,-3.9,30.30,East,80,0.0,0.0,10,0.00,CLR,,0.00,WeatherDisplay:10.37,2013-03-10 15:31:00,
2013-03-10 11:34:00,50.5,-2.2,30.30,ESE,104,0.9,5.8,11,0.00,CLR,,0.00,WeatherDisplay:10.37,2013-03-10 15:34:00,
2013-03-10 11:36:00,51.3,0.3,30.30,ESE,104,0.0,0.0,12,0.00,CLR,,0.00,WeatherDisplay:10.37,2013-03-10 15:36:00,
2013-03-10 11:39:00,50.6,-2.1,30.29,ESE,104,0.7,5.2,11,0.00,CLR,,0.00,WeatherDisplay:10.37,2013-03-10 15:39:00,
2013-03-10 11:41:00,50.5,-0.3,30.29,ESE,121,4.3,6.9,12,0.00,CLR,,0.00,WeatherDisplay:10.37,2013-03-10 15:41:00,
2013-03-10 11:44:00,50.7,-2.0,30.29,SSE,147,2.5,5.8,11,0.00,CLR,,0.00,WeatherDisplay:10.37,2013-03-10 15:44:00,
2013-03-10 11:46:00,51.9,-1.1,30.29,SSE,147,0.0,0.0,11,0.00,CLR,,0.00,WeatherDisplay:10.37,2013-03-10 15:46:00,
2013-03-10 11:50:00,51.0,-1.8,30.29,East,99,4.2,6.9,11,0.00,CLR,,0.00,WeatherDisplay:10.37,2013-03-10 15:50:00,
2013-03-10 11:51:00,51.0,-1.8,30.29,ESE,117,4.7,5.8,11,0.00,CLR,,0.00,WeatherDisplay:10.37,2013-03-10 15:51:00,
2013-03-10 11:55:00,51.4,-1.5,30.29,East,100,3.1,5.8,11,0.00,CLR,,0.00,WeatherDisplay:10.37,2013-03-10 15:55:00,
2013-03-10 11:56:00,50.9,-3.9,30.29,East,100,0.0,4.6,10,0.00,CLR,,0.00,WeatherDisplay:10.37,2013-03-10 15:56:00,
2013-03-10 11:57:00,51.7,-3.2,30.29,East,100,0.0,4.6,10,0.00,CLR,,0.00,WeatherDisplay:10.37,2013-03-10 15:57:00,
2013-03-10 12:00:00,51.3,-1.5,30.29,SSE,148,4.7,8.1,11,0.00,CLR,,0.00,WeatherDisplay:10.37,2013-03-10 16:00:00,
2013-03-10 12:01:00,51.2,-3.6,30.29,ESE,103,3.4,9.1,10,0.00,CLR,,0.00,WeatherDisplay:10.37,2013-03-10 16:01:00,
2013-03-10 12:02:00,51.2,-3.6,30.29,East,86,5.7,9.2,10,0.00,CLR,,0.00,WeatherDisplay:10.37,2013-03-10 16:02:00,
2013-03-10 12:05:00,50.5,-2.2,30.29,East,97,5.4,9.2,11,0.00,CLR,,0.00,WeatherDisplay:10.37,2013-03-10 16:05:00,
2013-03-10 12:06:00,51.2,0.2,30.29,ESE,123,4.2,8.1,12,0.00,CLR,,0.00,WeatherDisplay:10.37,2013-03-10 16:06:00,
2013-03-10 12:08:00,51.3,-1.5,30.29,ESE,123,0.0,0.0,11,0.00,CLR,,0.00,WeatherDisplay:10.37,2013-03-10 16:08:00,
2013-03-10 12:11:00,51.4,-1.5,30.29,ESE,123,0.0,0.0,11,0.00,CLR,,0.00,WeatherDisplay:10.37,2013-03-10 16:11:00,
2013-03-10 12:12:00,50.8,-3.9,30.29,ESE,123,0.0,0.0,10,0.00,CLR,,0.00,WeatherDisplay:10.37,2013-03-10 16:12:00,
2013-03-10 12:13:00,51.4,-1.5,30.29,ESE,106,4.0,5.8,11,0.00,CLR,,0.00,WeatherDisplay:10.37,2013-03-10 16:13:00,
2013-03-10 12:16:00,51.3,-1.5,30.29,SE,130,3.8,6.9,11,0.00,CLR,,0.00,WeatherDisplay:10.37,2013-03-10 16:16:00,
2013-03-10 12:17:00,51.5,-1.4,30.29,SE,136,4.7,9.2,11,0.00,CLR,,0.00,WeatherDisplay:10.37,2013-03-10 16:17:00,
2013-03-10 12:18:00,51.3,-3.6,30.29,ESE,106,0.9,4.6,10,0.00,CLR,,0.00,WeatherDisplay:10.37,2013-03-10 16:18:00,
2013-03-10 12:21:00,50.7,-2.0,30.29,ESE,106,0.0,0.0,11,0.00,CLR,,0.00,WeatherDisplay:10.37,2013-03-10 16:21:00,
2013-03-10 12:22:00,51.4,0.4,30.29,ESE,123,1.2,5.8,12,0.00,CLR,,0.00,WeatherDisplay:10.37,2013-03-10 16:22:00,
2013-03-10 12:23:00,51.4,-1.5,30.29,ESE,123,0.0,4.6,11,0.00,CLR,,0.00,WeatherDisplay:10.37,2013-03-10 16:23:00,
2013-03-10 12:26:00,52.0,-3.0,30.29,ESE,123,0.0,0.0,10,0.00,CLR,,0.00,WeatherDisplay:10.37,2013-03-10 16:26:00,
2013-03-10 12:27:00,51.9,-1.1,30.29,ESE,123,0.0,0.0,11,0.00,CLR,,0.00,WeatherDisplay:10.37,2013-03-10 16:27:00,
2013-03-10 12:28:00,52.8,-2.4,30.29,ESE,123,0.0,0.0,10,0.00,CLR,,0.00,WeatherDisplay:10.37,2013-03-10 16:28:00,
2013-03-10 12:31:00,53.0,-2.2,30.29,ESE,123,0.0,0.0,10,0.00,CLR,,0.00,WeatherDisplay:10.37,2013-03-10 16:31:00,
2013-03-10 12:32:00,53.0,-4.5,30.29,East,88,0.6,5.6,9,0.00,CLR,,0.00,WeatherDisplay:10.37,2013-03-10 16:32:00,
2013-03-10 12:33:00,52.3,-5.0,30.29,ESE,106,2.5,7.6,9,0.00,CLR,,0.00,WeatherDisplay:10.37,2013-03-10 16:33:00,
2013-03-10 12:34:00,52.0,-3.0,30.29,ESE,121,4.0,8.1,10,0.00,CLR,,0.00,WeatherDisplay:10.37,2013-03-10 16:34:00,
2013-03-10 12:36:00,53.2,-2.1,30.28,ESE,107,0.0,0.0,10,0.00,CLR,,0.00,WeatherDisplay:10.37,2013-03-10 16:36:00,
2013-03-10 12:37:00,52.3,-2.8,30.28,ESE,107,0.0,0.0,10,0.00,CLR,,0.00,WeatherDisplay:10.37,2013-03-10 16:37:00,
2013-03-10 12:38:00,52.1,-2.9,30.28,ESE,107,0.0,0.0,10,0.00,CLR,,0.00,WeatherDisplay:10.37,2013-03-10 16:38:00,
2013-03-10 12:39:00,52.1,-2.9,30.28,ESE,107,0.0,0.0,10,0.00,CLR,,0.00,WeatherDisplay:10.37,2013-03-10 16:39:00,
2013-03-10 12:41:00,51.8,-3.2,30.28,ESE,107,0.0,0.0,10,0.00,CLR,,0.00,WeatherDisplay:10.37,2013-03-10 16:41:00,
2013-03-10 12:43:00,52.9,-2.3,30.28,ESE,107,0.0,0.0,10,0.00,CLR,,0.00,WeatherDisplay:10.37,2013-03-10 16:43:00,
2013-03-10 12:44:00,51.1,-3.7,30.28,ESE,107,0.0,0.0,10,0.00,CLR,,0.00,WeatherDisplay:10.37,2013-03-10 16:44:00,
2013-03-10 12:46:00,51.4,-1.5,30.28,ESE,102,0.0,6.9,11,0.00,CLR,,0.00,WeatherDisplay:10.37,2013-03-10 16:46:00,
2013-03-10 12:48:00,52.5,1.2,30.27,ESE,102,0.0,0.0,12,0.00,CLR,,0.00,WeatherDisplay:10.37,2013-03-10 16:48:00,
2013-03-10 12:49:00,51.3,-3.6,30.28,East,82,2.9,5.8,10,0.00,CLR,,0.00,WeatherDisplay:10.37,2013-03-10 16:49:00,
2013-03-10 12:51:00,52.6,-2.6,30.27,East,82,0.0,0.0,10,0.00,CLR,,0.00,WeatherDisplay:10.37,2013-03-10 16:51:00,
2013-03-10 12:53:00,52.1,-0.9,30.27,East,82,0.0,0.0,11,0.00,CLR,,0.00,WeatherDisplay:10.37,2013-03-10 16:53:00,
2013-03-10 12:54:00,51.3,-3.6,30.27,NE,42,2.3,6.9,10,0.00,CLR,,0.00,WeatherDisplay:10.37,2013-03-10 16:54:00,
2013-03-10 12:55:00,51.3,-3.6,30.27,NE,42,1.9,6.9,10,0.00,CLR,,0.00,WeatherDisplay:10.37,2013-03-10 16:55:00,
2013-03-10 12:57:00,52.4,-0.7,30.27,ESE,106,2.4,6.9,11,0.00,CLR,,0.00,WeatherDisplay:10.37,2013-03-10 16:57:00,
2013-03-10 12:58:00,53.2,-2.1,30.27,NE,56,3.8,6.9,10,0.00,CLR,,0.00,WeatherDisplay:10.37,2013-03-10 16:58:00,
2013-03-10 12:59:00,53.4,-1.9,30.27,NE,56,0.0,4.6,10,0.00,CLR,,0.00,WeatherDisplay:10.37,2013-03-10 16:59:00,
2013-03-10 13:00:00,53.2,-4.3,30.27,NE,56,0.0,0.0,9,0.00,CLR,,0.00,WeatherDisplay:10.37,2013-03-10 17:00:00,
2013-03-10 13:02:00,52.7,-4.7,30.27,NE,56,0.0,0.0,9,0.00,CLR,,0.00,WeatherDisplay:10.37,2013-03-10 17:02:00,
2013-03-10 13:03:00,53.6,-4.0,30.27,NE,56,0.0,0.0,9,0.00,CLR,,0.00,WeatherDisplay:10.37,2013-03-10 17:03:00,
2013-03-10 13:04:00,56.0,-4.6,30.27,NE,56,0.0,0.0,8,0.00,CLR,,0.00,WeatherDisplay:10.37,2013-03-10 17:04:00,
2013-03-10 13:05:00,56.0,-4.6,30.27,NE,56,0.0,0.0,8,0.00,CLR,,0.00,WeatherDisplay:10.37,2013-03-10 17:05:00,
2013-03-10 13:07:00,57.4,-6.4,30.27,ESE,102,4.3,6.9,7,0.00,CLR,,0.00,WeatherDisplay:10.37,2013-03-10 17:07:00,
2013-03-10 13:08:00,57.2,-6.5,30.27,SE,144,0.1,4.6,7,0.00,CLR,,0.00,WeatherDisplay:10.37,2013-03-10 17:08:00,
2013-03-10 13:09:00,58.3,-5.7,30.27,SE,144,0.0,0.0,7,0.00,CLR,,0.00,WeatherDisplay:10.37,2013-03-10 17:09:00,
2013-03-10 13:10:00,58.3,-5.7,30.27,SE,144,0.0,0.0,7,0.00,CLR,,0.00,WeatherDisplay:10.37,2013-03-10 17:10:00,
2013-03-10 13:12:00,59.9,-4.5,30.27,South,169,1.1,6.5,7,0.00,CLR,,0.00,WeatherDisplay:10.37,2013-03-10 17:12:00,
2013-03-10 13:14:00,59.5,-4.8,30.26,ESE,114,1.1,6.9,7,0.00,CLR,,0.00,WeatherDisplay:10.37,2013-03-10 17:14:00,
2013-03-10 13:15:00,58.7,-5.4,30.27,East,88,5.0,9.2,7,0.00,CLR,,0.00,WeatherDisplay:10.37,2013-03-10 17:15:00,
2013-03-10 13:17:00,54.1,-3.6,30.27,ESE,103,7.7,10.4,9,0.00,CLR,,0.00,WeatherDisplay:10.37,2013-03-10 17:17:00,
2013-03-10 13:19:00,55.6,-4.9,30.27,ESE,103,2.3,6.9,8,0.00,CLR,,0.00,WeatherDisplay:10.37,2013-03-10 17:19:00,
2013-03-10 13:20:00,55.9,-2.2,30.27,ESE,102,0.8,5.8,9,0.00,CLR,,0.00,WeatherDisplay:10.37,2013-03-10 17:20:00,
2013-03-10 13:22:00,57.0,-3.9,30.26,SE,126,4.1,8.1,8,0.00,CLR,,0.00,WeatherDisplay:10.37,2013-03-10 17:22:00,
2013-03-10 13:24:00,59.3,-4.9,30.26,SE,140,0.3,7.3,7,0.00,CLR,,0.00,WeatherDisplay:10.37,2013-03-10 17:24:00,
2013-03-10 13:25:00,59.6,-1.9,30.26,ESE,112,3.9,8.1,8,0.00,CLR,,0.00,WeatherDisplay:10.37,2013-03-10 17:25:00,
2013-03-10 13:27:00,60.1,-4.3,30.26,East,95,3.2,7.3,7,0.00,CLR,,0.00,WeatherDisplay:10.37,2013-03-10 17:27:00,
2013-03-10 13:29:00,58.8,-2.5,30.26,SE,140,9.2,12.7,8,0.00,CLR,,0.00,WeatherDisplay:10.37,2013-03-10 17:29:00,
2013-03-10 13:30:00,57.8,-3.3,30.26,SE,141,5.5,8.1,8,0.00,CLR,,0.00,WeatherDisplay:10.37,2013-03-10 17:30:00,
2013-03-10 13:32:00,59.5,-2.0,30.26,ESE,123,6.9,9.2,8,0.00,CLR,,0.00,WeatherDisplay:10.37,2013-03-10 17:32:00,
2013-03-10 13:34:00,58.9,-2.4,30.26,SE,124,2.5,6.2,8,0.00,CLR,,0.00,WeatherDisplay:10.37,2013-03-10 17:34:00,
2013-03-10 13:35:00,57.6,-6.2,30.26,ESE,103,5.8,9.0,7,0.00,CLR,,0.00,WeatherDisplay:10.37,2013-03-10 17:35:00,
2013-03-10 13:37:00,56.6,-4.2,30.26,ESE,123,5.5,9.2,8,0.00,CLR,,0.00,WeatherDisplay:10.37,2013-03-10 17:37:00,
2013-03-10 13:40:00,59.4,-4.9,30.26,ESE,107,5.2,8.1,7,0.00,CLR,,0.00,WeatherDisplay:10.37,2013-03-10 17:40:00,
2013-03-10 13:43:00,59.3,-4.9,30.25,East,92,3.8,8.1,7,0.00,CLR,,0.00,WeatherDisplay:10.37,2013-03-10 17:43:00,
2013-03-10 13:45:00,59.5,-2.0,30.25,SSE,155,4.3,9.2,8,0.00,CLR,,0.00,WeatherDisplay:10.37,2013-03-10 17:45:00,
2013-03-10 13:46:00,59.5,-4.8,30.25,ESE,102,2.4,9.2,7,0.00,CLR,,0.00,WeatherDisplay:10.37,2013-03-10 17:46:00,
2013-03-10 13:48:00,59.3,-4.9,30.25,East,89,5.9,10.4,7,0.00,CLR,,0.00,WeatherDisplay:10.37,2013-03-10 17:48:00,
2013-03-10 13:50:00,57.9,-6.0,30.25,East,96,6.4,8.1,7,0.00,CLR,,0.00,WeatherDisplay:10.37,2013-03-10 17:50:00,
2013-03-10 13:51:00,55.9,-4.7,30.25,East,85,3.8,8.1,8,0.00,CLR,,0.00,WeatherDisplay:10.37,2013-03-10 17:51:00,
2013-03-10 13:53:00,56.6,-1.7,30.25,ENE,64,5.3,9.2,9,0.00,CLR,,0.00,WeatherDisplay:10.37,2013-03-10 17:53:00,
2013-03-10 13:55:00,56.1,-4.6,30.25,NE,44,4.7,5.8,8,0.00,CLR,,0.00,WeatherDisplay:10.37,2013-03-10 17:55:00,
2013-03-10 13:56:00,55.3,-2.7,30.25,NE,44,1.7,8.1,9,0.00,CLR,,0.00,WeatherDisplay:10.37,2013-03-10 17:56:00,
2013-03-10 13:58:00,57.1,-1.3,30.25,NE,44,0.0,0.0,9,0.00,CLR,,0.00,WeatherDisplay:10.37,2013-03-10 17:58:00,
2013-03-10 14:00:00,58.8,-2.5,30.25,NE,44,0.0,0.0,8,0.00,CLR,,0.00,WeatherDisplay:10.37,2013-03-10 18:00:00,
2013-03-10 14:01:00,57.8,-3.3,30.25,NE,44,0.1,3.2,8,0.00,CLR,,0.00,WeatherDisplay:10.37,2013-03-10 18:01:00,
2013-03-10 14:03:00,60.1,-1.5,30.25,NE,44,0.0,0.0,8,0.00,CLR,,0.00,WeatherDisplay:10.37,2013-03-10 18:03:00,
2013-03-10 14:06:00,59.5,-4.8,30.25,East,82,0.8,5.8,7,0.00,CLR,,0.00,WeatherDisplay:10.37,2013-03-10 18:06:00,
2013-03-10 14:07:00,59.9,-1.7,30.25,East,82,0.0,0.0,8,0.00,CLR,,0.00,WeatherDisplay:10.37,2013-03-10 18:07:00,
2013-03-10 14:09:00,60.7,-3.9,30.25,East,89,2.3,6.9,7,0.00,CLR,,0.00,WeatherDisplay:10.37,2013-03-10 18:09:00,
2013-03-10 14:11:00,60.5,-4.1,30.24,East,82,0.0,0.0,7,0.00,CLR,,0.00,WeatherDisplay:10.37,2013-03-10 18:11:00,
2013-03-10 14:12:00,60.8,-3.8,30.25,East,82,0.0,0.0,7,0.00,CLR,,0.00,WeatherDisplay:10.37,2013-03-10 18:12:00,
2013-03-10 14:14:00,61.6,-3.2,30.25,ESE,114,4.5,9.2,7,0.00,CLR,,0.00,WeatherDisplay:10.37,2013-03-10 18:14:00,
2013-03-10 14:16:00,61.8,-3.1,30.24,ESE,114,0.0,0.0,7,0.00,CLR,,0.00,WeatherDisplay:10.37,2013-03-10 18:16:00,
2013-03-10 14:17:00,62.6,-2.5,30.24,ESE,114,0.0,0.0,7,0.00,CLR,,0.00,WeatherDisplay:10.37,2013-03-10 18:17:00,
2013-03-10 14:19:00,63.0,-5.4,30.24,ESE,114,0.0,0.0,6,0.00,CLR,,0.00,WeatherDisplay:10.37,2013-03-10 18:19:00,
2013-03-10 14:21:00,62.9,-5.5,30.24,SSE,148,1.4,4.6,6,0.00,CLR,,0.00,WeatherDisplay:10.37,2013-03-10 18:21:00,
2013-03-10 14:22:00,63.2,-5.3,30.24,SSE,152,1.3,5.8,6,0.00,CLR,,0.00,WeatherDisplay:10.37,2013-03-10 18:22:00,
2013-03-10 14:24:00,63.6,-5.0,30.24,SSE,150,0.5,6.0,6,0.00,CLR,,0.00,WeatherDisplay:10.37,2013-03-10 18:24:00,
2013-03-10 14:26:00,63.7,-4.9,30.24,ESE,103,0.0,3.5,6,0.00,CLR,,0.00,WeatherDisplay:10.37,2013-03-10 18:26:00,
2013-03-10 14:27:00,63.9,-4.8,30.24,ESE,103,0.0,0.0,6,0.00,CLR,,0.00,WeatherDisplay:10.37,2013-03-10 18:27:00,
2013-03-10 14:29:00,64.7,-4.2,30.24,SE,141,0.5,3.5,6,0.00,CLR,,0.00,WeatherDisplay:10.37,2013-03-10 18:29:00,
2013-03-10 14:31:00,64.4,-4.4,30.24,East,86,6.8,10.4,6,0.00,CLR,,0.00,WeatherDisplay:10.37,2013-03-10 18:31:00,
2013-03-10 14:32:00,64.6,-4.3,30.23,East,89,5.0,9.2,6,0.00,CLR,,0.00,WeatherDisplay:10.37,2013-03-10 18:32:00,
2013-03-10 14:34:00,64.1,-4.6,30.23,ESE,119,0.0,6.9,6,0.00,CLR,,0.00,WeatherDisplay:10.37,2013-03-10 18:34:00,
2013-03-10 14:37:00,64.1,-4.6,30.23,East,80,0.0,0.0,6,0.00,CLR,,0.00,WeatherDisplay:10.37,2013-03-10 18:37:00,
2013-03-10 14:38:00,64.0,-4.7,30.23,East,80,0.0,0.0,6,0.00,CLR,,0.00,WeatherDisplay:10.37,2013-03-10 18:38:00,
2013-03-10 14:40:00,64.2,-4.6,30.23,SW,217,0.2,5.4,6,0.00,CLR,,0.00,WeatherDisplay:10.37,2013-03-10 18:40:00,
2013-03-10 14:42:00,64.4,-4.4,30.22,SSE,151,1.2,5.8,6,0.00,CLR,,0.00,WeatherDisplay:10.37,2013-03-10 18:42:00,
2013-03-10 14:43:00,65.1,-3.9,30.22,SSE,151,0.0,0.0,6,0.00,CLR,,0.00,WeatherDisplay:10.37,2013-03-10 18:43:00,
2013-03-10 14:45:00,65.8,-3.4,30.23,SE,134,7.7,11.5,6,0.00,CLR,,0.00,WeatherDisplay:10.37,2013-03-10 18:45:00,
2013-03-10 14:47:00,66.0,-3.2,30.22,SSE,147,2.6,6.9,6,0.00,CLR,,0.00,WeatherDisplay:10.37,2013-03-10 18:47:00,
2013-03-10 14:48:00,66.4,-6.7,30.22,ESE,109,5.1,8.1,5,0.00,CLR,,0.00,WeatherDisplay:10.37,2013-03-10 18:48:00,
2013-03-10 14:50:00,65.9,-7.1,30.22,ESE,109,0.0,0.0,5,0.00,CLR,,0.00,WeatherDisplay:10.37,2013-03-10 18:50:00,
2013-03-10 14:52:00,66.1,-7.0,30.22,SW,219,3.6,6.9,5,0.00,CLR,,0.00,WeatherDisplay:10.37,2013-03-10 18:52:00,
2013-03-10 14:53:00,66.3,-3.0,30.22,SSW,213,2.5,8.6,6,0.00,CLR,,0.00,WeatherDisplay:10.37,2013-03-10 18:53:00,
2013-03-10 14:55:00,65.4,-3.7,30.22,SSW,210,3.0,9.2,6,0.00,CLR,,0.00,WeatherDisplay:10.37,2013-03-10 18:55:00,
2013-03-10 14:57:00,64.0,-4.7,30.21,SSW,212,7.5,8.8,6,0.00,CLR,,0.00,WeatherDisplay:10.37,2013-03-10 18:57:00,
2013-03-10 14:58:00,64.1,-4.6,30.21,WSW,258,4.3,10.4,6,0.00,CLR,,0.00,WeatherDisplay:10.37,2013-03-10 18:58:00,
2013-03-10 15:00:00,64.6,-4.3,30.21,WSW,258,0.0,0.0,6,0.00,CLR,,0.00,WeatherDisplay:10.37,2013-03-10 19:00:00,
2013-03-10 15:02:00,65.6,-3.5,30.21,SE,144,5.2,6.9,6,0.00,CLR,,0.00,WeatherDisplay:10.37,2013-03-10 19:02:00,
2013-03-10 15:03:00,65.9,-3.3,30.22,East,79,0.7,6.9,6,0.00,CLR,,0.00,WeatherDisplay:10.37,2013-03-10 19:03:00,
2013-03-10 15:05:00,66.9,-6.4,30.21,ESE,110,4.8,9.2,5,0.00,CLR,,0.00,WeatherDisplay:10.37,2013-03-10 19:05:00,
2013-03-10 15:07:00,67.1,-6.2,30.21,SE,133,0.5,9.0,5,0.00,CLR,,0.00,WeatherDisplay:10.37,2013-03-10 19:07:00,
2013-03-10 15:08:00,67.1,-6.2,30.21,South,179,1.5,6.9,5,0.00,CLR,,0.00,WeatherDisplay:10.37,2013-03-10 19:08:00,
2013-03-10 15:10:00,66.7,-6.5,30.21,NE,41,5.6,10.4,5,0.00,CLR,,0.00,WeatherDisplay:10.37,2013-03-10 19:10:00,
2013-03-10 15:13:00,67.0,-2.5,30.21,SSW,193,3.9,3.9,6,0.00,CLR,,0.00,WeatherDisplay:10.37,2013-03-10 19:13:00,
2013-03-10 15:14:00,66.9,-2.6,30.21,SE,128,6.6,9.2,6,0.00,CLR,,0.00,WeatherDisplay:10.37,2013-03-10 19:14:00,
2013-03-10 15:16:00,67.5,-6.0,30.21,SSW,195,0.0,4.6,5,0.00,CLR,,0.00,WeatherDisplay:10.37,2013-03-10 19:16:00,
2013-03-10 15:18:00,68.0,-5.6,30.21,SSE,155,5.9,9.2,5,0.00,CLR,,0.00,WeatherDisplay:10.37,2013-03-10 19:18:00,
2013-03-10 15:19:00,68.3,-10.0,30.21,SSE,151,1.5,6.9,4,0.00,CLR,,0.00,WeatherDisplay:10.37,2013-03-10 19:19:00,
2013-03-10 15:21:00,68.2,-5.5,30.21,SE,131,3.1,8.1,5,0.00,CLR,,0.00,WeatherDisplay:10.37,2013-03-10 19:21:00,
2013-03-10 15:23:00,68.1,-5.5,30.21,SSE,161,5.0,11.5,5,0.00,CLR,,0.00,WeatherDisplay:10.37,2013-03-10 19:23:00,
2013-03-10 15:24:00,68.0,-5.6,30.21,SE,127,4.2,9.2,5,0.00,CLR,,0.00,WeatherDisplay:10.37,2013-03-10 19:24:00,
2013-03-10 15:26:00,68.0,-5.6,30.21,ESE,121,0.0,0.0,5,0.00,CLR,,0.00,WeatherDisplay:10.37,2013-03-10 19:26:00,
2013-03-10 15:28:00,68.2,-5.5,30.21,SE,136,2.1,5.8,5,0.00,CLR,,0.00,WeatherDisplay:10.37,2013-03-10 19:28:00,
2013-03-10 15:29:00,68.4,-5.3,30.21,SSE,168,1.7,6.9,5,0.00,CLR,,0.00,WeatherDisplay:10.37,2013-03-10 19:29:00,
2013-03-10 15:31:00,68.6,-5.2,30.21,SSW,196,4.1,8.1,5,0.00,CLR,,0.00,WeatherDisplay:10.37,2013-03-10 19:31:00,
2013-03-10 15:33:00,68.2,-10.0,30.21,East,88,4.9,12.2,4,0.00,CLR,,0.00,WeatherDisplay:10.37,2013-03-10 19:33:00,
2013-03-10 15:34:00,67.7,-5.8,30.21,SSE,168,8.2,12.7,5,0.00,CLR,,0.00,WeatherDisplay:10.37,2013-03-10 19:34:00,
2013-03-10 15:36:00,66.9,-6.4,30.20,ESE,109,1.1,8.1,5,0.00,CLR,,0.00,WeatherDisplay:10.37,2013-03-10 19:36:00,
2013-03-10 15:38:00,66.0,-7.0,30.20,SE,136,10.7,13.8,5,0.00,CLR,,0.00,WeatherDisplay:10.37,2013-03-10 19:38:00,
2013-03-10 15:39:00,66.1,-3.2,30.20,SE,133,9.3,13.8,6,0.00,CLR,,0.00,WeatherDisplay:10.37,2013-03-10 19:39:00,
2013-03-10 15:41:00,64.8,-4.1,30.21,ESE,109,10.2,12.7,6,0.00,CLR,,0.00,WeatherDisplay:10.37,2013-03-10 19:41:00,
2013-03-10 15:43:00,65.1,-3.9,30.20,ESE,104,5.7,9.2,6,0.00,CLR,,0.00,WeatherDisplay:10.37,2013-03-10 19:43:00,
2013-03-10 15:44:00,65.1,-3.9,30.20,ESE,117,6.4,9.2,6,0.00,CLR,,0.00,WeatherDisplay:10.37,2013-03-10 19:44:00,
2013-03-10 15:45:00,65.7,-7.2,30.20,ESE,121,0.6,9.2,5,0.00,CLR,,0.00,WeatherDisplay:10.37,2013-03-10 19:45:00,
2013-03-10 15:47:00,64.1,-4.6,30.20,ENE,59,7.7,12.7,6,0.00,CLR,,0.00,WeatherDisplay:10.37,2013-03-10 19:47:00,
2013-03-10 15:50:00,64.6,-4.3,30.20,ESE,110,7.3,11.5,6,0.00,CLR,,0.00,WeatherDisplay:10.37,2013-03-10 19:50:00,
2013-03-10 15:52:00,65.0,-4.0,30.20,SE,126,6.1,8.1,6,0.00,CLR,,0.00,WeatherDisplay:10.37,2013-03-10 19:52:00,
2013-03-10 15:55:00,65.5,-3.6,30.20,SSE,150,8.3,11.5,6,0.00,CLR,,0.00,WeatherDisplay:10.37,2013-03-10 19:55:00,
2013-03-10 15:57:00,65.9,-7.1,30.20,ESE,112,8.6,12.7,5,0.00,CLR,,0.00,WeatherDisplay:10.37,2013-03-10 19:57:00,
2013-03-10 16:00:00,65.5,-3.6,30.20,SE,134,5.2,10.4,6,0.00,CLR,,0.00,WeatherDisplay:10.37,2013-03-10 20:00:00,
2013-03-10 16:02:00,66.1,-7.0,30.19,East,100,2.7,9.2,5,0.00,CLR,,0.00,WeatherDisplay:10.37,2013-03-10 20:02:00,
2013-03-10 16:05:00,65.3,-7.5,30.19,East,97,8.0,11.7,5,0.00,CLR,,0.00,WeatherDisplay:10.37,2013-03-10 20:05:00,
2013-03-10 16:07:00,65.3,-3.7,30.19,ESE,116,6.6,9.2,6,0.00,CLR,,0.00,WeatherDisplay:10.37,2013-03-10 20:07:00,
2013-03-10 16:10:00,65.6,-7.3,30.19,SSE,150,8.0,16.1,5,0.00,CLR,,0.00,WeatherDisplay:10.37,2013-03-10 20:10:00,
2013-03-10 16:12:00,65.9,-3.3,30.19,ESE,109,8.3,13.8,6,0.00,CLR,,0.00,WeatherDisplay:10.37,2013-03-10 20:12:00,
2013-03-10 16:15:00,66.7,-6.5,30.19,SSE,164,1.7,8.1,5,0.00,CLR,,0.00,WeatherDisplay:10.37,2013-03-10 20:15:00,
2013-03-10 16:17:00,66.4,-2.9,30.19,South,172,8.4,11.5,6,0.00,CLR,,0.00,WeatherDisplay:10.37,2013-03-10 20:17:00,
2013-03-10 16:18:00,67.1,-2.4,30.19,SSE,158,8.4,11.5,6,0.00,CLR,,0.00,WeatherDisplay:10.37,2013-03-10 20:18:00,
2013-03-10 16:20:00,66.4,-2.9,30.19,ESE,123,6.4,9.2,6,0.00,CLR,,0.00,WeatherDisplay:10.37,2013-03-10 20:20:00,
2013-03-10 16:22:00,66.9,-6.4,30.19,East,100,4.6,8.1,5,0.00,CLR,,0.00,WeatherDisplay:10.37,2013-03-10 20:22:00,
2013-03-10 16:23:00,66.1,-7.0,30.19,ESE,112,4.8,8.1,5,0.00,CLR,,0.00,WeatherDisplay:10.37,2013-03-10 20:23:00,
2013-03-10 16:26:00,65.9,-7.1,30.19,East,97,7.0,13.8,5,0.00,CLR,,0.00,WeatherDisplay:10.37,2013-03-10 20:26:00,
2013-03-10 16:28:00,66.1,-3.2,30.19,East,95,7.1,11.5,6,0.00,CLR,,0.00,WeatherDisplay:10.37,2013-03-10 20:28:00,
2013-03-10 16:31:00,66.2,-3.1,30.19,ESE,123,4.3,10.4,6,0.00,CLR,,0.00,WeatherDisplay:10.37,2013-03-10 20:31:00,
2013-03-10 16:33:00,66.0,-3.2,30.19,South,184,8.1,10.4,6,0.00,CLR,,0.00,WeatherDisplay:10.37,2013-03-10 20:33:00,
2013-03-10 16:37:00,65.4,-7.5,30.19,East,93,6.1,9.2,5,0.00,CLR,,0.00,WeatherDisplay:10.37,2013-03-10 20:37:00,
2013-03-10 16:38:00,65.6,-3.5,30.19,East,85,5.3,6.9,6,0.00,CLR,,0.00,WeatherDisplay:10.37,2013-03-10 20:38:00,
2013-03-10 16:39:00,65.8,-3.4,30.19,East,89,6.8,7.1,6,0.00,CLR,,0.00,WeatherDisplay:10.37,2013-03-10 20:39:00,
2013-03-10 16:42:00,65.3,-7.5,30.19,ESE,113,6.3,8.1,5,0.00,CLR,,0.00,WeatherDisplay:10.37,2013-03-10 20:42:00,
2013-03-10 16:44:00,65.8,-7.2,30.19,East,99,2.3,7.9,5,0.00,CLR,,0.00,WeatherDisplay:10.37,2013-03-10 20:44:00,
2013-03-10 16:46:00,66.0,-3.2,30.19,East,99,6.7,11.5,6,0.00,CLR,,0.00,WeatherDisplay:10.37,2013-03-10 20:46:00,
2013-03-10 16:48:00,66.2,-3.1,30.19,ESE,120,3.8,9.2,6,0.00,CLR,,0.00,WeatherDisplay:10.37,2013-03-10 20:48:00,
2013-03-10 16:49:00,66.2,-3.1,30.19,SSE,150,5.8,9.2,6,0.00,CLR,,0.00,WeatherDisplay:10.37,2013-03-10 20:49:00,
2013-03-10 16:52:00,67.1,-6.2,30.19,South,189,3.9,8.1,5,0.00,CLR,,0.00,WeatherDisplay:10.37,2013-03-10 20:52:00,
2013-03-10 16:53:00,67.0,-6.3,30.19,East,95,2.2,8.1,5,0.00,CLR,,0.00,WeatherDisplay:10.37,2013-03-10 20:53:00,
2013-03-10 16:54:00,67.4,-2.2,30.19,ESE,119,4.4,8.1,6,0.00,CLR,,0.00,WeatherDisplay:10.37,2013-03-10 20:54:00,
2013-03-10 16:57:00,67.3,-6.1,30.19,SE,137,5.6,10.4,5,0.00,CLR,,0.00,WeatherDisplay:10.37,2013-03-10 20:57:00,
2013-03-10 16:58:00,67.3,-6.1,30.19,ESE,114,6.0,10.4,5,0.00,CLR,,0.00,WeatherDisplay:10.37,2013-03-10 20:58:00,
2013-03-10 16:59:00,67.4,-6.0,30.18,East,83,5.7,8.7,5,0.00,CLR,,0.00,WeatherDisplay:10.37,2013-03-10 20:59:00,
2013-03-10 17:03:00,68.4,-5.3,30.19,SE,130,1.6,5.8,5,0.00,CLR,,0.00,WeatherDisplay:10.37,2013-03-10 21:03:00,
2013-03-10 17:04:00,68.8,-5.0,30.19,SE,145,2.3,5.8,5,0.00,CLR,,0.00,WeatherDisplay:10.37,2013-03-10 21:04:00,
2013-03-10 17:08:00,68.7,-5.1,30.19,SE,130,6.6,9.2,5,0.00,CLR,,0.00,WeatherDisplay:10.37,2013-03-10 21:08:00,
2013-03-10 17:09:00,68.5,-5.2,30.19,East,97,4.8,10.4,5,0.00,CLR,,0.00,WeatherDisplay:10.37,2013-03-10 21:09:00,
2013-03-10 17:13:00,69.5,-4.5,30.19,East,93,1.0,3.5,5,0.00,CLR,,0.00,WeatherDisplay:10.37,2013-03-10 21:13:00,
2013-03-10 17:14:00,69.7,-9.0,30.19,East,93,0.0,0.0,4,0.00,CLR,,0.00,WeatherDisplay:10.37,2013-03-10 21:14:00,
2013-03-10 17:18:00,69.9,-4.2,30.19,South,174,0.8,0.0,5,0.00,CLR,,0.00,WeatherDisplay:10.37,2013-03-10 21:18:00,
2013-03-10 17:19:00,69.9,-8.9,30.19,SW,229,5.8,11.5,4,0.00,CLR,,0.00,WeatherDisplay:10.37,2013-03-10 21:19:00,
2013-03-10 17:20:00,69.9,-8.9,30.19,SSW,195,3.6,8.1,4,0.00,CLR,,0.00,WeatherDisplay:10.37,2013-03-10 21:20:00,
2013-03-10 17:23:00,69.7,-4.4,30.19,ESE,103,0.6,6.3,5,0.00,CLR,,0.00,WeatherDisplay:10.37,2013-03-10 21:23:00,
2013-03-10 17:24:00,69.6,-4.5,30.19,SSE,167,1.7,6.9,5,0.00,CLR,,0.00,WeatherDisplay:10.37,2013-03-10 21:24:00,
2013-03-10 17:25:00,69.6,-4.5,30.19,South,174,1.3,4.7,5,0.00,CLR,,0.00,WeatherDisplay:10.37,2013-03-10 21:25:00,
2013-03-10 17:28:00,69.4,-4.6,30.19,East,96,8.2,11.5,5,0.00,CLR,,0.00,WeatherDisplay:10.37,2013-03-10 21:28:00,
2013-03-10 17:29:00,67.4,-6.0,30.19,ESE,113,9.4,11.5,5,0.00,CLR,,0.00,WeatherDisplay:10.37,2013-03-10 21:29:00,
2013-03-10 17:30:00,67.7,-5.8,30.19,SSE,161,9.2,17.3,5,0.00,CLR,,0.00,WeatherDisplay:10.37,2013-03-10 21:30:00,
2013-03-10 17:33:00,67.2,-6.2,30.19,SE,137,7.5,12.7,5,0.00,CLR,,0.00,WeatherDisplay:10.37,2013-03-10 21:33:00,
2013-03-10 17:34:00,67.6,-2.1,30.19,SE,126,4.5,10.4,6,0.00,CLR,,0.00,WeatherDisplay:10.37,2013-03-10 21:34:00,
2013-03-10 17:35:00,67.3,-2.3,30.19,East,82,4.5,6.9,6,0.00,CLR,,0.00,WeatherDisplay:10.37,2013-03-10 21:35:00,
2013-03-10 17:38:00,66.9,-2.6,30.18,SSE,147,6.3,7.5,6,0.00,CLR,,0.00,WeatherDisplay:10.37,2013-03-10 21:38:00,
2013-03-10 17:40:00,66.7,-2.7,30.18,ESE,119,8.1,11.5,6,0.00,CLR,,0.00,WeatherDisplay:10.37,2013-03-10 21:40:00,
2013-03-10 17:43:00,66.7,-2.7,30.18,SE,138,7.0,12.7,6,0.00,CLR,,0.00,WeatherDisplay:10.37,2013-03-10 21:43:00,
2013-03-10 17:45:00,67.3,-2.3,30.18,ENE,64,4.5,10.4,6,0.00,CLR,,0.00,WeatherDisplay:10.37,2013-03-10 21:45:00,
2013-03-10 17:49:00,67.1,-2.4,30.19,SSE,150,6.0,6.9,6,0.00,CLR,,0.00,WeatherDisplay:10.37,2013-03-10 21:49:00,
2013-03-10 17:50:00,67.8,-1.9,30.19,SE,144,6.8,9.2,6,0.00,CLR,,0.00,WeatherDisplay:10.37,2013-03-10 21:50:00,
2013-03-10 17:54:00,67.3,-2.3,30.19,ESE,109,5.5,9.2,6,0.00,CLR,,0.00,WeatherDisplay:10.37,2013-03-10 21:54:00,
2013-03-10 17:55:00,67.6,-5.9,30.19,SSE,151,4.2,8.1,5,0.00,CLR,,0.00,WeatherDisplay:10.37,2013-03-10 21:55:00,
2013-03-10 17:56:00,67.3,-6.1,30.19,ESE,109,6.0,10.6,5,0.00,CLR,,0.00,WeatherDisplay:10.37,2013-03-10 21:56:00,
2013-03-10 17:59:00,67.4,-6.0,30.19,SE,137,4.3,9.2,5,0.00,CLR,,0.00,WeatherDisplay:10.37,2013-03-10 21:59:00,
2013-03-10 18:00:00,67.7,-5.8,30.19,ESE,103,4.0,5.8,5,0.00,CLR,,0.00,WeatherDisplay:10.37,2013-03-10 22:00:00,
2013-03-10 18:01:00,67.9,-5.7,30.19,SSE,157,2.3,4.6,5,0.00,CLR,,0.00,WeatherDisplay:10.37,2013-03-10 22:01:00,
2013-03-10 18:04:00,68.8,-5.0,30.19,South,185,3.2,5.8,5,0.00,CLR,,0.00,WeatherDisplay:10.37,2013-03-10 22:04:00,
2013-03-10 18:05:00,68.5,-5.2,30.19,SE,126,2.0,8.1,5,0.00,CLR,,0.00,WeatherDisplay:10.37,2013-03-10 22:05:00,
2013-03-10 18:06:00,68.8,-5.0,30.19,ESE,117,3.8,7.9,5,0.00,CLR,,0.00,WeatherDisplay:10.37,2013-03-10 22:06:00,
2013-03-10 18:07:00,68.4,-5.3,30.19,ESE,120,4.3,8.1,5,0.00,CLR,,0.00,WeatherDisplay:10.37,2013-03-10 22:07:00,
2013-03-10 18:10:00,68.5,-5.2,30.19,NE,52,1.2,5.3,5,0.00,CLR,,0.00,WeatherDisplay:10.37,2013-03-10 22:10:00,
2013-03-10 18:11:00,67.3,-6.1,30.19,East,100,5.3,7.8,5,0.00,CLR,,0.00,WeatherDisplay:10.37,2013-03-10 22:11:00,
2013-03-10 18:12:00,67.2,-2.4,30.19,SE,144,6.5,8.1,6,0.00,CLR,,0.00,WeatherDisplay:10.37,2013-03-10 22:12:00,
2013-03-10 18:15:00,67.4,-6.0,30.19,ESE,112,0.0,0.0,5,0.00,CLR,,0.00,WeatherDisplay:10.37,2013-03-10 22:15:00,
2013-03-10 18:17:00,68.3,-5.4,30.19,SE,144,2.1,8.1,5,0.00,CLR,,0.00,WeatherDisplay:10.37,2013-03-10 22:17:00,
2013-03-10 18:20:00,67.5,-6.0,30.19,East,99,3.0,8.0,5,0.00,CLR,,0.00,WeatherDisplay:10.37,2013-03-10 22:20:00,
2013-03-10 18:22:00,66.9,-6.4,30.19,ESE,103,6.2,9.2,5,0.00,CLR,,0.00,WeatherDisplay:10.37,2013-03-10 22:22:00,
2013-03-10 18:25:00,66.3,-3.0,30.19,ENE,68,4.7,8.1,6,0.00,CLR,,0.00,WeatherDisplay:10.37,2013-03-10 22:25:00,
2013-03-10 18:27:00,65.9,-3.3,30.19,ENE,68,0.0,0.0,6,0.00,CLR,,0.00,WeatherDisplay:10.37,2013-03-10 22:27:00,
2013-03-10 18:30:00,65.3,-3.7,30.19,SE,130,1.5,5.8,6,0.00,CLR,,0.00,WeatherDisplay:10.37,2013-03-10 22:30:00,
2013-03-10 18:31:00,65.6,-3.5,30.19,ESE,112,2.5,5.8,6,0.00,CLR,,0.00,WeatherDisplay:10.37,2013-03-10 22:31:00,
2013-03-10 18:32:00,65.2,-3.8,30.19,ESE,121,1.3,6.9,6,0.00,CLR,,0.00,WeatherDisplay:10.37,2013-03-10 22:32:00,
2013-03-10 18:33:00,65.2,-3.8,30.19,ESE,104,1.9,6.9,6,0.00,CLR,,0.00,WeatherDisplay:10.37,2013-03-10 22:33:00,
2013-03-10 18:35:00,64.4,-4.4,30.19,SE,126,5.5,6.9,6,0.00,CLR,,0.00,WeatherDisplay:10.37,2013-03-10 22:35:00,
2013-03-10 18:37:00,64.3,-4.5,30.19,SE,134,8.2,10.4,6,0.00,CLR,,0.00,WeatherDisplay:10.37,2013-03-10 22:37:00,
2013-03-10 18:38:00,64.0,-1.5,30.19,ESE,114,8.5,11.5,7,0.00,CLR,,0.00,WeatherDisplay:10.37,2013-03-10 22:38:00,
2013-03-10 18:40:00,64.1,-1.4,30.19,SE,137,6.9,12.7,7,0.00,CLR,,0.00,WeatherDisplay:10.37,2013-03-10 22:40:00,
2013-03-10 18:41:00,64.1,-4.6,30.19,SE,131,4.2,8.1,6,0.00,CLR,,0.00,WeatherDisplay:10.37,2013-03-10 22:41:00,
2013-03-10 18:42:00,63.9,-4.8,30.19,ESE,116,4.4,7.5,6,0.00,CLR,,0.00,WeatherDisplay:10.37,2013-03-10 22:42:00,
2013-03-10 18:43:00,64.1,-1.4,30.19,SE,126,5.4,9.2,7,0.00,CLR,,0.00,WeatherDisplay:10.37,2013-03-10 22:43:00,
2013-03-10 18:45:00,63.8,-4.8,30.19,ESE,110,2.7,6.9,6,0.00,CLR,,0.00,WeatherDisplay:10.37,2013-03-10 22:45:00,
2013-03-10 18:46:00,63.6,-1.8,30.19,ESE,106,6.3,10.4,7,0.00,CLR,,0.00,WeatherDisplay:10.37,2013-03-10 22:46:00,
2013-03-10 18:48:00,63.7,-1.7,30.19,East,93,2.5,9.2,7,0.00,CLR,,0.00,WeatherDisplay:10.37,2013-03-10 22:48:00,
2013-03-10 18:50:00,63.4,-1.9,30.19,SE,127,1.6,6.3,7,0.00,CLR,,0.00,WeatherDisplay:10.37,2013-03-10 22:50:00,
2013-03-10 18:51:00,63.4,-1.9,30.19,ESE,123,4.4,6.9,7,0.00,CLR,,0.00,WeatherDisplay:10.37,2013-03-10 22:51:00,
2013-03-10 18:53:00,63.3,-2.0,30.19,ESE,123,0.0,0.0,7,0.00,CLR,,0.00,WeatherDisplay:10.37,2013-03-10 22:53:00,
2013-03-10 18:55:00,63.1,-2.1,30.19,SE,124,2.3,5.8,7,0.00,CLR,,0.00,WeatherDisplay:10.37,2013-03-10 22:55:00,
2013-03-10 18:57:00,63.4,-5.1,30.19,ESE,102,0.0,5.8,6,0.00,CLR,,0.00,WeatherDisplay:10.37,2013-03-10 22:57:00,
2013-03-10 18:58:00,63.5,-1.8,30.19,ESE,102,0.0,0.0,7,0.00,CLR,,0.00,WeatherDisplay:10.37,2013-03-10 22:58:00,
2013-03-10 19:00:00,63.5,-1.8,30.19,ENE,76,0.0,4.6,7,0.00,CLR,,0.00,WeatherDisplay:10.37,2013-03-10 23:00:00,
2013-03-10 19:02:00,63.0,-2.2,30.19,ESE,113,0.8,8.1,7,0.00,CLR,,0.00,WeatherDisplay:10.37,2013-03-10 23:02:00,
2013-03-10 19:03:00,63.2,-2.0,30.19,ESE,113,0.0,3.5,7,0.00,CLR,,0.00,WeatherDisplay:10.37,2013-03-10 23:03:00,
2013-03-10 19:05:00,62.5,-2.6,30.19,ESE,113,0.0,0.0,7,0.00,CLR,,0.00,WeatherDisplay:10.37,2013-03-10 23:05:00,
2013-03-10 19:08:00,62.6,-2.5,30.19,ESE,103,1.3,6.9,7,0.00,CLR,,0.00,WeatherDisplay:10.37,2013-03-10 23:08:00,
2013-03-10 19:09:00,62.4,-2.6,30.19,ESE,103,0.0,0.0,7,0.00,CLR,,0.00,WeatherDisplay:10.37,2013-03-10 23:09:00,
2013-03-10 19:10:00,62.3,-2.7,30.19,ESE,103,0.0,0.0,7,0.00,CLR,,0.00,WeatherDisplay:10.37,2013-03-10 23:10:00,
2013-03-10 19:13:00,62.2,-2.8,30.19,ESE,103,0.0,0.0,7,0.00,CLR,,0.00,WeatherDisplay:10.37,2013-03-10 23:13:00,
2013-03-10 19:14:00,62.4,-2.6,30.19,ESE,103,0.0,0.0,7,0.00,CLR,,0.00,WeatherDisplay:10.37,2013-03-10 23:14:00,
2013-03-10 19:15:00,62.1,-6.1,30.19,ESE,103,0.0,0.0,6,0.00,CLR,,0.00,WeatherDisplay:10.37,2013-03-10 23:15:00,
2013-03-10 19:18:00,61.8,-3.1,30.19,ESE,103,0.0,0.0,7,0.00,CLR,,0.00,WeatherDisplay:10.37,2013-03-10 23:18:00,
2013-03-10 19:20:00,61.9,-3.0,30.19,East,97,4.8,6.9,7,0.00,CLR,,0.00,WeatherDisplay:10.37,2013-03-10 23:20:00,
2013-03-10 19:23:00,61.6,-3.2,30.19,East,90,0.0,0.0,7,0.00,CLR,,0.00,WeatherDisplay:10.37,2013-03-10 23:23:00,
2013-03-10 19:25:00,61.5,-3.3,30.19,East,90,0.0,0.0,7,0.00,CLR,,0.00,WeatherDisplay:10.37,2013-03-10 23:25:00,
2013-03-10 19:28:00,61.5,-3.3,30.19,East,90,0.0,0.0,7,0.00,CLR,,0.00,WeatherDisplay:10.37,2013-03-10 23:28:00,
2013-03-10 19:30:00,61.5,-3.3,30.19,East,96,3.7,8.1,7,0.00,CLR,,0.00,WeatherDisplay:10.37,2013-03-10 23:30:00,
2013-03-10 19:31:00,61.2,-0.7,30.18,SE,128,5.0,8.1,8,0.00,CLR,,0.00,WeatherDisplay:10.37,2013-03-10 23:31:00,
2013-03-10 19:33:00,61.4,-3.4,30.18,East,93,2.4,7.6,7,0.00,CLR,,0.00,WeatherDisplay:10.37,2013-03-10 23:33:00,
2013-03-10 19:34:00,61.0,-3.7,30.18,ESE,112,3.0,6.3,7,0.00,CLR,,0.00,WeatherDisplay:10.37,2013-03-10 23:34:00,
2013-03-10 19:35:00,61.3,-3.5,30.18,East,82,5.0,6.9,7,0.00,CLR,,0.00,WeatherDisplay:10.37,2013-03-10 23:35:00,
2013-03-10 19:37:00,61.4,-0.6,30.18,ESE,116,3.8,6.9,8,0.00,CLR,,0.00,WeatherDisplay:10.37,2013-03-10 23:37:00,
2013-03-10 19:39:00,61.3,-3.5,30.18,ENE,65,3.6,5.8,7,0.00,CLR,,0.00,WeatherDisplay:10.37,2013-03-10 23:39:00,
2013-03-10 19:40:00,61.4,-3.4,30.18,East,96,3.8,6.9,7,0.00,CLR,,0.00,WeatherDisplay:10.37,2013-03-10 23:40:00,
2013-03-10 19:42:00,60.9,-3.8,30.19,East,93,2.1,6.9,7,0.00,CLR,,0.00,WeatherDisplay:10.37,2013-03-10 23:42:00,
2013-03-10 19:44:00,60.9,-0.9,30.19,ESE,119,2.4,5.8,8,0.00,CLR,,0.00,WeatherDisplay:10.37,2013-03-10 23:44:00,
2013-03-10 19:45:00,61.5,-3.3,30.19,ESE,119,0.0,3.5,7,0.00,CLR,,0.00,WeatherDisplay:10.37,2013-03-10 23:45:00,
2013-03-10 19:47:00,61.3,-3.5,30.19,ESE,103,2.0,5.8,7,0.00,CLR,,0.00,WeatherDisplay:10.37,2013-03-10 23:47:00,
2013-03-10 19:49:00,61.2,-0.7,30.19,ESE,116,5.0,6.9,8,0.00,CLR,,0.00,WeatherDisplay:10.37,2013-03-10 23:49:00,
2013-03-10 19:50:00,61.2,-3.5,30.19,East,88,3.5,6.9,7,0.00,CLR,,0.00,WeatherDisplay:10.37,2013-03-10 23:50:00,
2013-03-10 19:52:00,60.8,-3.8,30.19,ENE,69,0.9,5.8,7,0.00,CLR,,0.00,WeatherDisplay:10.37,2013-03-10 23:52:00,
2013-03-10 19:54:00,60.5,-4.1,30.19,ENE,69,0.0,0.0,7,0.00,CLR,,0.00,WeatherDisplay:10.37,2013-03-10 23:54:00,
2013-03-10 19:55:00,60.3,-4.2,30.19,East,100,2.4,6.2,7,0.00,CLR,,0.00,WeatherDisplay:10.37,2013-03-10 23:55:00,
2013-03-10 19:57:00,60.6,-4.0,30.19,East,90,3.7,6.9,7,0.00,CLR,,0.00,WeatherDisplay:10.37,2013-03-10 23:57:00,
2013-03-10 19:59:00,60.3,-4.2,30.19,ESE,102,1.6,3.4,7,0.00,CLR,,0.00,WeatherDisplay:10.37,2013-03-10 23:59:00,
2013-03-10 20:00:00,60.0,-1.6,30.19,East,99,1.9,0.0,8,0.00,CLR,,0.00,WeatherDisplay:10.37,2013-03-11 00:00:00,
2013-03-10 20:03:00,59.0,-5.2,30.19,ESE,110,0.0,0.0,7,0.00,CLR,,0.00,WeatherDisplay:10.37,2013-03-11 00:03:00,
2013-03-10 20:04:00,59.1,-5.1,30.19,East,79,2.3,3.4,7,0.00,CLR,,0.00,WeatherDisplay:10.37,2013-03-11 00:04:00,
2013-03-10 20:05:00,59.5,-4.8,30.19,East,79,2.5,4.6,7,0.00,CLR,,0.00,WeatherDisplay:10.37,2013-03-11 00:05:00,
2013-03-10 20:08:00,59.0,-2.4,30.20,East,83,0.0,4.6,8,0.00,CLR,,0.00,WeatherDisplay:10.37,2013-03-11 00:08:00,
2013-03-10 20:10:00,59.3,-2.1,30.20,East,83,0.0,0.0,8,0.00,CLR,,0.00,WeatherDisplay:10.37,2013-03-11 00:10:00,
2013-03-10 20:11:00,58.9,-5.2,30.19,East,83,0.0,0.0,7,0.00,CLR,,0.00,WeatherDisplay:10.37,2013-03-11 00:11:00,
2013-03-10 20:14:00,58.1,-3.0,30.20,East,83,0.0,0.0,8,0.00,CLR,,0.00,WeatherDisplay:10.37,2013-03-11 00:14:00,
2013-03-10 20:15:00,57.4,-3.6,30.20,East,83,0.0,0.0,8,0.00,CLR,,0.00,WeatherDisplay:10.37,2013-03-11 00:15:00,
2013-03-10 20:16:00,57.4,-3.6,30.20,East,79,2.5,4.4,8,0.00,CLR,,0.00,WeatherDisplay:10.37,2013-03-11 00:16:00,
2013-03-10 20:19:00,58.2,-3.0,30.20,ESE,106,2.0,4.6,8,0.00,CLR,,0.00,WeatherDisplay:10.37,2013-03-11 00:19:00,
2013-03-10 20:20:00,58.0,-3.1,30.20,ESE,106,0.0,0.0,8,0.00,CLR,,0.00,WeatherDisplay:10.37,2013-03-11 00:20:00,
2013-03-10 20:21:00,57.4,-3.6,30.20,ESE,106,0.0,0.0,8,0.00,CLR,,0.00,WeatherDisplay:10.37,2013-03-11 00:21:00,
2013-03-10 20:24:00,57.9,-0.7,30.20,ESE,106,0.0,0.0,9,0.00,CLR,,0.00,WeatherDisplay:10.37,2013-03-11 00:24:00,
2013-03-10 20:25:00,57.3,-3.7,30.20,ESE,106,0.0,0.0,8,0.00,CLR,,0.00,WeatherDisplay:10.37,2013-03-11 00:25:00,
2013-03-10 20:27:00,56.1,-4.6,30.20,ESE,106,0.0,0.0,8,0.00,CLR,,0.00,WeatherDisplay:10.37,2013-03-11 00:27:00,
2013-03-10 20:29:00,57.4,-1.1,30.20,ESE,106,0.0,0.0,9,0.00,CLR,,0.00,WeatherDisplay:10.37,2013-03-11 00:29:00,
2013-03-10 20:30:00,56.9,-1.5,30.20,ESE,106,0.0,0.0,9,0.00,CLR,,0.00,WeatherDisplay:10.37,2013-03-11 00:30:00,
2013-03-10 20:32:00,56.9,-1.5,30.20,ENE,78,1.9,4.6,9,0.00,CLR,,0.00,WeatherDisplay:10.37,2013-03-11 00:32:00,
2013-03-10 20:34:00,57.0,-3.9,30.20,ENE,58,0.1,4.6,8,0.00,CLR,,0.00,WeatherDisplay:10.37,2013-03-11 00:34:00,
2013-03-10 20:35:00,57.4,-3.6,30.20,East,93,3.9,4.6,8,0.00,CLR,,0.00,WeatherDisplay:10.37,2013-03-11 00:35:00,
2013-03-10 20:37:00,57.3,-3.7,30.20,ESE,123,1.8,5.8,8,0.00,CLR,,0.00,WeatherDisplay:10.37,2013-03-11 00:37:00,
2013-03-10 20:39:00,56.9,-4.0,30.20,ESE,123,0.0,0.0,8,0.00,CLR,,0.00,WeatherDisplay:10.37,2013-03-11 00:39:00,
2013-03-10 20:40:00,56.9,-4.0,30.20,ESE,106,5.2,6.4,8,0.00,CLR,,0.00,WeatherDisplay:10.37,2013-03-11 00:40:00,
2013-03-10 20:41:00,56.1,-4.6,30.20,East,99,6.2,6.2,8,0.00,CLR,,0.00,WeatherDisplay:10.37,2013-03-11 00:41:00,
2013-03-10 20:42:00,56.9,-4.0,30.20,East,89,5.1,5.8,8,0.00,CLR,,0.00,WeatherDisplay:10.37,2013-03-11 00:42:00,
2013-03-10 20:44:00,57.1,-1.3,30.20,East,80,1.0,4.6,9,0.00,CLR,,0.00,WeatherDisplay:10.37,2013-03-11 00:44:00,
2013-03-10 20:45:00,57.1,-1.3,30.20,East,80,0.0,3.5,9,0.00,CLR,,0.00,WeatherDisplay:10.37,2013-03-11 00:45:00,
2013-03-10 20:46:00,57.6,-0.9,30.20,East,80,0.0,0.0,9,0.00,CLR,,0.00,WeatherDisplay:10.37,2013-03-11 00:46:00,
2013-03-10 20:48:00,57.0,-3.9,30.21,East,95,1.0,5.4,8,0.00,CLR,,0.00,WeatherDisplay:10.37,2013-03-11 00:48:00,
2013-03-10 20:49:00,56.9,-4.0,30.21,ENE,64,0.0,5.8,8,0.00,CLR,,0.00,WeatherDisplay:10.37,2013-03-11 00:49:00,
2013-03-10 20:50:00,56.0,0.1,30.21,ENE,64,0.0,0.0,10,0.00,CLR,,0.00,WeatherDisplay:10.37,2013-03-11 00:50:00,
2013-03-10 20:52:00,57.2,-1.2,30.21,ENE,64,0.0,0.0,9,0.00,CLR,,0.00,WeatherDisplay:10.37,2013-03-11 00:52:00,
2013-03-10 20:53:00,55.3,-2.7,30.21,ENE,64,0.0,0.0,9,0.00,CLR,,0.00,WeatherDisplay:10.37,2013-03-11 00:53:00,
2013-03-10 20:54:00,55.8,-2.3,30.21,ENE,64,0.0,0.0,9,0.00,CLR,,0.00,WeatherDisplay:10.37,2013-03-11 00:54:00,
2013-03-10 20:55:00,55.7,-2.4,30.21,ENE,64,0.0,0.0,9,0.00,CLR,,0.00,WeatherDisplay:10.37,2013-03-11 00:55:00,
2013-03-10 20:57:00,54.8,-5.5,30.21,East,79,1.6,4.4,8,0.00,CLR,,0.00,WeatherDisplay:10.37,2013-03-11 00:57:00,
2013-03-10 20:58:00,55.9,-2.2,30.21,East,79,0.0,4.6,9,0.00,CLR,,0.00,WeatherDisplay:10.37,2013-03-11 00:58:00,
2013-03-10 20:59:00,55.8,-4.8,30.21,ENE,73,1.3,3.0,8,0.00,CLR,,0.00,WeatherDisplay:10.37,2013-03-11 00:59:00,
2013-03-10 21:01:00,56.0,-4.6,30.21,East,93,3.9,4.6,8,0.00,CLR,,0.00,WeatherDisplay:10.37,2013-03-11 01:01:00,
2013-03-10 21:02:00,55.2,-2.8,30.21,East,100,1.7,5.8,9,0.00,CLR,,0.00,WeatherDisplay:10.37,2013-03-11 01:02:00,
2013-03-10 21:04:00,56.4,-4.3,30.20,East,85,2.5,6.9,8,0.00,CLR,,0.00,WeatherDisplay:10.37,2013-03-11 01:04:00,
2013-03-10 21:06:00,55.4,-5.1,30.20,ESE,114,5.0,8.1,8,0.00,CLR,,0.00,WeatherDisplay:10.37,2013-03-11 01:06:00,
2013-03-10 21:07:00,55.5,-2.5,30.20,East,80,4.5,8.1,9,0.00,CLR,,0.00,WeatherDisplay:10.37,2013-03-11 01:07:00,
2013-03-10 21:09:00,56.2,-2.0,30.20,East,86,6.1,10.4,9,0.00,CLR,,0.00,WeatherDisplay:10.37,2013-03-11 01:09:00,
2013-03-10 21:11:00,56.9,-4.0,30.20,East,95,2.3,6.9,8,0.00,CLR,,0.00,WeatherDisplay:10.37,2013-03-11 01:11:00,
2013-03-10 21:13:00,55.8,-4.8,30.20,East,86,3.3,4.6,8,0.00,CLR,,0.00,WeatherDisplay:10.37,2013-03-11 01:13:00,
2013-03-10 21:14:00,55.8,-2.3,30.20,East,89,1.2,4.6,9,0.00,CLR,,0.00,WeatherDisplay:10.37,2013-03-11 01:14:00,
2013-03-10 21:15:00,54.3,-3.5,30.20,NE,41,3.7,5.8,9,0.00,CLR,,0.00,WeatherDisplay:10.37,2013-03-11 01:15:00,
2013-03-10 21:17:00,55.5,-0.3,30.20,East,99,1.7,6.9,10,0.00,CLR,,0.00,WeatherDisplay:10.37,2013-03-11 01:17:00,
2013-03-10 21:18:00,53.5,-1.9,30.20,East,99,0.0,0.0,10,0.00,CLR,,0.00,WeatherDisplay:10.37,2013-03-11 01:18:00,
2013-03-10 21:19:00,54.0,0.6,30.20,East,99,0.0,0.0,11,0.00,CLR,,0.00,WeatherDisplay:10.37,2013-03-11 01:19:00,
2013-03-10 21:20:00,53.3,1.9,30.20,East,99,0.0,0.0,12,0.00,CLR,,0.00,WeatherDisplay:10.37,2013-03-11 01:20:00,
2013-03-10 21:22:00,52.6,1.3,30.20,East,99,0.0,0.0,12,0.00,CLR,,0.00,WeatherDisplay:10.37,2013-03-11 01:22:00,
2013-03-10 21:23:00,53.9,2.4,30.20,East,99,0.0,0.0,12,0.00,CLR,,0.00,WeatherDisplay:10.37,2013-03-11 01:23:00,
2013-03-10 21:24:00,53.0,1.6,30.20,East,99,0.0,0.0,12,0.00,CLR,,0.00,WeatherDisplay:10.37,2013-03-11 01:24:00,
2013-03-10 21:25:00,52.0,0.9,30.20,East,99,0.0,0.0,12,0.00,CLR,,0.00,WeatherDisplay:10.37,2013-03-11 01:25:00,
2013-03-10 21:27:00,52.9,1.6,30.20,East,99,0.0,0.0,12,0.00,CLR,,0.00,WeatherDisplay:10.37,2013-03-11 01:27:00,
2013-03-10 21:28:00,51.7,0.6,30.20,East,99,0.0,0.0,12,0.00,CLR,,0.00,WeatherDisplay:10.37,2013-03-11 01:28:00,
2013-03-10 21:29:00,53.0,1.6,30.21,East,99,0.0,0.0,12,0.00,CLR,,0.00,WeatherDisplay:10.37,2013-03-11 01:29:00,
2013-03-10 21:30:00,53.2,1.8,30.21,East,99,0.0,0.0,12,0.00,CLR,,0.00,WeatherDisplay:10.37,2013-03-11 01:30:00,
2013-03-10 21:32:00,51.9,0.8,30.21,East,99,0.0,0.0,12,0.00,CLR,,0.00,WeatherDisplay:10.37,2013-03-11 01:32:00,
2013-03-10 21:34:00,51.4,-1.5,30.21,East,99,0.0,0.0,11,0.00,CLR,,0.00,WeatherDisplay:10.37,2013-03-11 01:34:00,
2013-03-10 21:35:00,52.0,-1.0,30.21,East,99,0.0,0.0,11,0.00,CLR,,0.00,WeatherDisplay:10.37,2013-03-11 01:35:00,
2013-03-10 21:38:00,51.8,-1.2,30.21,East,99,0.0,0.0,11,0.00,CLR,,0.00,WeatherDisplay:10.37,2013-03-11 01:38:00,
2013-03-10 21:39:00,53.1,1.7,30.21,East,99,0.0,0.0,12,0.00,CLR,,0.00,WeatherDisplay:10.37,2013-03-11 01:39:00,
2013-03-10 21:40:00,52.9,1.6,30.21,East,99,0.0,0.0,12,0.00,CLR,,0.00,WeatherDisplay:10.37,2013-03-11 01:40:00,
2013-03-10 21:43:00,51.9,0.8,30.21,East,99,0.0,0.0,12,0.00,CLR,,0.00,WeatherDisplay:10.37,2013-03-11 01:43:00,
2013-03-10 21:44:00,52.4,1.2,30.21,East,99,0.0,0.0,12,0.00,CLR,,0.00,WeatherDisplay:10.37,2013-03-11 01:44:00,
2013-03-10 21:46:00,52.4,1.2,30.22,East,99,0.0,0.0,12,0.00,CLR,,0.00,WeatherDisplay:10.37,2013-03-11 01:46:00,
2013-03-10 21:48:00,51.1,-1.7,30.21,East,99,0.0,0.0,11,0.00,CLR,,0.00,WeatherDisplay:10.37,2013-03-11 01:48:00,
2013-03-10 21:49:00,51.3,0.3,30.22,East,99,0.0,0.0,12,0.00,CLR,,0.00,WeatherDisplay:10.37,2013-03-11 01:49:00,
2013-03-10 21:52:00,50.9,0.0,30.21,East,99,0.0,0.0,12,0.00,CLR,,0.00,WeatherDisplay:10.37,2013-03-11 01:52:00,
2013-03-10 21:54:00,51.8,0.7,30.22,East,99,0.0,0.0,12,0.00,CLR,,0.00,WeatherDisplay:10.37,2013-03-11 01:54:00,
2013-03-10 21:55:00,51.5,-1.4,30.22,East,99,0.0,0.0,11,0.00,CLR,,0.00,WeatherDisplay:10.37,2013-03-11 01:55:00,
2013-03-10 21:57:00,51.8,0.7,30.22,East,99,0.0,0.0,12,0.00,CLR,,0.00,WeatherDisplay:10.37,2013-03-11 01:57:00,
2013-03-10 21:59:00,52.1,0.9,30.22,East,99,0.0,0.0,12,0.00,CLR,,0.00,WeatherDisplay:10.37,2013-03-11 01:59:00,
2013-03-10 22:00:00,51.6,0.5,30.22,East,99,0.0,0.0,12,0.00,CLR,,0.00,WeatherDisplay:10.37,2013-03-11 02:00:00,
2013-03-10 22:02:00,51.1,0.1,30.22,East,99,0.0,0.0,12,0.00,CLR,,0.00,WeatherDisplay:10.37,2013-03-11 02:02:00,
2013-03-10 22:04:00,51.2,0.2,30.22,East,99,0.0,0.0,12,0.00,CLR,,0.00,WeatherDisplay:10.37,2013-03-11 02:04:00,
2013-03-10 22:05:00,51.8,2.4,30.22,East,99,0.0,0.0,13,0.00,CLR,,0.00,WeatherDisplay:10.37,2013-03-11 02:05:00,
2013-03-10 22:08:00,51.3,2.0,30.21,East,99,0.0,0.0,13,0.00,CLR,,0.00,WeatherDisplay:10.37,2013-03-11 02:08:00,
2013-03-10 22:09:00,52.3,1.1,30.21,East,99,0.0,0.0,12,0.00,CLR,,0.00,WeatherDisplay:10.37,2013-03-11 02:09:00,
2013-03-10 22:10:00,52.3,1.1,30.21,ESE,112,0.7,6.0,12,0.00,CLR,,0.00,WeatherDisplay:10.37,2013-03-11 02:10:00,
2013-03-10 22:13:00,52.7,1.4,30.21,ENE,73,0.0,4.6,12,0.00,CLR,,0.00,WeatherDisplay:10.37,2013-03-11 02:13:00,
2013-03-10 22:14:00,51.2,1.9,30.21,ENE,73,0.0,0.0,13,0.00,CLR,,0.00,WeatherDisplay:10.37,2013-03-11 02:14:00,
2013-03-10 22:15:00,51.6,2.3,30.21,ENE,73,0.0,0.0,13,0.00,CLR,,0.00,WeatherDisplay:10.37,2013-03-11 02:15:00,
2013-03-10 22:18:00,50.8,1.6,30.21,ESE,104,0.0,4.6,13,0.00,CLR,,0.00,WeatherDisplay:10.37,2013-03-11 02:18:00,
2013-03-10 22:19:00,51.2,1.9,30.21,ESE,104,0.0,0.0,13,0.00,CLR,,0.00,WeatherDisplay:10.37,2013-03-11 02:19:00,
2013-03-10 22:20:00,51.8,0.7,30.21,ESE,109,0.2,4.9,12,0.00,CLR,,0.00,WeatherDisplay:10.37,2013-03-11 02:20:00,
2013-03-10 22:24:00,52.4,-0.7,30.21,East,80,5.5,9.2,11,0.00,CLR,,0.00,WeatherDisplay:10.37,2013-03-11 02:24:00,
2013-03-10 22:25:00,52.9,-0.3,30.21,East,88,5.3,9.2,11,0.00,CLR,,0.00,WeatherDisplay:10.37,2013-03-11 02:25:00,
2013-03-10 22:26:00,52.0,-1.0,30.21,East,89,5.4,6.9,11,0.00,CLR,,0.00,WeatherDisplay:10.37,2013-03-11 02:26:00,
2013-03-10 22:29:00,51.6,0.5,30.21,East,79,2.6,5.8,12,0.00,CLR,,0.00,WeatherDisplay:10.37,2013-03-11 02:29:00,
2013-03-10 22:30:00,52.6,1.3,30.21,ENE,68,0.9,4.6,12,0.00,CLR,,0.00,WeatherDisplay:10.37,2013-03-11 02:30:00,
2013-03-10 22:31:00,52.0,2.6,30.21,ENE,68,0.0,0.0,13,0.00,CLR,,0.00,WeatherDisplay:10.37,2013-03-11 02:31:00,
2013-03-10 22:34:00,53.0,-0.2,30.21,ESE,104,4.0,5.8,11,0.00,CLR,,0.00,WeatherDisplay:10.37,2013-03-11 02:34:00,
2013-03-10 22:35:00,52.2,-0.8,30.21,ESE,104,0.5,4.6,11,0.00,CLR,,0.00,WeatherDisplay:10.37,2013-03-11 02:35:00,
2013-03-10 22:36:00,51.6,-1.3,30.21,ESE,104,0.0,0.0,11,0.00,CLR,,0.00,WeatherDisplay:10.37,2013-03-11 02:36:00,
2013-03-10 22:39:00,51.8,-1.2,30.22,ESE,104,0.0,0.0,11,0.00,CLR,,0.00,WeatherDisplay:10.37,2013-03-11 02:39:00,
2013-03-10 22:40:00,53.4,0.1,30.22,ESE,104,0.0,0.0,11,0.00,CLR,,0.00,WeatherDisplay:10.37,2013-03-11 02:40:00,
2013-03-10 22:41:00,52.8,1.5,30.22,ESE,104,0.0,0.0,12,0.00,CLR,,0.00,WeatherDisplay:10.37,2013-03-11 02:41:00,
2013-03-10 22:44:00,52.8,1.5,30.22,ESE,104,0.0,0.0,12,0.00,CLR,,0.00,WeatherDisplay:10.37,2013-03-11 02:44:00,
2013-03-10 22:45:00,52.7,3.1,30.22,ESE,104,0.0,0.0,13,0.00,CLR,,0.00,WeatherDisplay:10.37,2013-03-11 02:45:00,
2013-03-10 22:47:00,51.2,0.2,30.22,ESE,104,0.0,0.0,12,0.00,CLR,,0.00,WeatherDisplay:10.37,2013-03-11 02:47:00,
2013-03-10 22:49:00,51.9,2.5,30.22,ESE,104,0.0,0.0,13,0.00,CLR,,0.00,WeatherDisplay:10.37,2013-03-11 02:49:00,
2013-03-10 22:50:00,52.9,1.6,30.22,ESE,104,0.0,0.0,12,0.00,CLR,,0.00,WeatherDisplay:10.37,2013-03-11 02:50:00,
2013-03-10 22:51:00,52.4,2.9,30.22,ESE,104,0.0,0.0,13,0.00,CLR,,0.00,WeatherDisplay:10.37,2013-03-11 02:51:00,
2013-03-10 22:52:00,51.8,0.7,30.22,ESE,104,0.0,0.0,12,0.00,CLR,,0.00,WeatherDisplay:10.37,2013-03-11 02:52:00,
2013-03-10 22:54:00,52.8,1.5,30.22,ESE,104,0.0,0.0,12,0.00,CLR,,0.00,WeatherDisplay:10.37,2013-03-11 02:54:00,
2013-03-10 22:55:00,51.2,0.2,30.22,ESE,104,0.0,0.0,12,0.00,CLR,,0.00,WeatherDisplay:10.37,2013-03-11 02:55:00,
2013-03-10 22:57:00,51.8,0.7,30.22,ESE,104,0.0,0.0,12,0.00,CLR,,0.00,WeatherDisplay:10.37,2013-03-11 02:57:00,
2013-03-10 22:59:00,51.8,0.7,30.22,ESE,104,0.0,0.0,12,0.00,CLR,,0.00,WeatherDisplay:10.37,2013-03-11 02:59:00,
2013-03-10 23:00:00,50.9,0.0,30.22,ESE,104,0.0,0.0,12,0.00,CLR,,0.00,WeatherDisplay:10.37,2013-03-11 03:00:00,
2013-03-10 23:02:00,51.3,2.0,30.22,ESE,104,0.0,0.0,13,0.00,CLR,,0.00,WeatherDisplay:10.37,2013-03-11 03:02:00,
2013-03-10 23:03:00,52.1,2.7,30.22,ESE,104,0.0,0.0,13,0.00,CLR,,0.00,WeatherDisplay:10.37,2013-03-11 03:03:00,
2013-03-10 23:05:00,51.7,2.3,30.22,ESE,104,0.0,0.0,13,0.00,CLR,,0.00,WeatherDisplay:10.37,2013-03-11 03:05:00,
2013-03-10 23:07:00,50.7,1.5,30.22,ESE,104,0.0,0.0,13,0.00,CLR,,0.00,WeatherDisplay:10.37,2013-03-11 03:07:00,
2013-03-10 23:08:00,51.4,3.7,30.22,ESE,104,0.0,0.0,14,0.00,CLR,,0.00,WeatherDisplay:10.37,2013-03-11 03:08:00,
2013-03-10 23:10:00,51.8,6.9,30.22,ESE,104,0.0,0.0,16,0.00,CLR,,0.00,WeatherDisplay:10.37,2013-03-11 03:10:00,
2013-03-10 23:12:00,50.9,3.3,30.22,ESE,104,0.0,0.0,14,0.00,CLR,,0.00,WeatherDisplay:10.37,2013-03-11 03:12:00,
2013-03-10 23:13:00,51.4,6.6,30.22,ESE,104,0.0,0.0,16,0.00,CLR,,0.00,WeatherDisplay:10.37,2013-03-11 03:13:00,
2013-03-10 23:15:00,51.9,7.0,30.22,ESE,104,0.0,0.0,16,0.00,CLR,,0.00,WeatherDisplay:10.37,2013-03-11 03:15:00,
2013-03-10 23:17:00,50.7,4.6,30.22,ESE,104,0.0,0.0,15,0.00,CLR,,0.00,WeatherDisplay:10.37,2013-03-11 03:17:00,
2013-03-10 23:19:00,51.6,5.4,30.22,ESE,104,0.0,0.0,15,0.00,CLR,,0.00,WeatherDisplay:10.37,2013-03-11 03:19:00,
2013-03-10 23:20:00,50.6,3.1,30.22,ESE,104,0.0,0.0,14,0.00,CLR,,0.00,WeatherDisplay:10.37,2013-03-11 03:20:00,
2013-03-10 23:22:00,50.7,3.1,30.22,ESE,104,0.0,0.0,14,0.00,CLR,,0.00,WeatherDisplay:10.37,2013-03-11 03:22:00,
2013-03-10 23:24:00,50.6,3.1,30.22,ESE,104,0.0,0.0,14,0.00,CLR,,0.00,WeatherDisplay:10.37,2013-03-11 03:24:00,
2013-03-10 23:25:00,50.6,4.6,30.22,ESE,104,0.0,0.0,15,0.00,CLR,,0.00,WeatherDisplay:10.37,2013-03-11 03:25:00,
2013-03-10 23:27:00,50.5,3.0,30.21,ESE,104,0.0,0.0,14,0.00,CLR,,0.00,WeatherDisplay:10.37,2013-03-11 03:27:00,
2013-03-10 23:29:00,50.7,3.1,30.21,ESE,104,0.0,0.0,14,0.00,CLR,,0.00,WeatherDisplay:10.37,2013-03-11 03:29:00,
2013-03-10 23:30:00,50.3,2.8,30.21,ESE,104,0.0,0.0,14,0.00,CLR,,0.00,WeatherDisplay:10.37,2013-03-11 03:30:00,
2013-03-10 23:33:00,50.8,3.2,30.21,ESE,104,0.0,0.0,14,0.00,CLR,,0.00,WeatherDisplay:10.37,2013-03-11 03:33:00,
2013-03-10 23:34:00,50.3,2.8,30.22,ESE,104,0.0,0.0,14,0.00,CLR,,0.00,WeatherDisplay:10.37,2013-03-11 03:34:00,
2013-03-10 23:36:00,50.7,3.1,30.21,ESE,104,0.0,0.0,14,0.00,CLR,,0.00,WeatherDisplay:10.37,2013-03-11 03:36:00,
2013-03-10 23:37:00,51.4,3.7,30.21,ESE,104,0.0,0.0,14,0.00,CLR,,0.00,WeatherDisplay:10.37,2013-03-11 03:37:00,
2013-03-10 23:38:00,51.0,1.8,30.21,ESE,104,0.0,0.0,13,0.00,CLR,,0.00,WeatherDisplay:10.37,2013-03-11 03:38:00,
2013-03-10 23:39:00,51.6,2.3,30.21,ESE,104,0.0,0.0,13,0.00,CLR,,0.00,WeatherDisplay:10.37,2013-03-11 03:39:00,
2013-03-10 23:41:00,50.3,-0.5,30.21,ESE,104,0.0,0.0,12,0.00,CLR,,0.00,WeatherDisplay:10.37,2013-03-11 03:41:00,
2013-03-10 23:42:00,51.3,0.3,30.21,East,88,3.1,5.0,12,0.00,CLR,,0.00,WeatherDisplay:10.37,2013-03-11 03:42:00,
2013-03-10 23:43:00,50.8,-1.9,30.21,ENE,78,5.5,5.8,11,0.00,CLR,,0.00,WeatherDisplay:10.37,2013-03-11 03:43:00,
2013-03-10 23:44:00,50.6,-2.1,30.21,ENE,69,2.5,5.8,11,0.00,CLR,,0.00,WeatherDisplay:10.37,2013-03-11 03:44:00,
2013-03-10 23:46:00,50.7,-0.2,30.21,ENE,69,0.0,0.0,12,0.00,CLR,,0.00,WeatherDisplay:10.37,2013-03-11 03:46:00,
2013-03-10 23:47:00,52.1,0.9,30.21,ENE,69,0.0,0.0,12,0.00,CLR,,0.00,WeatherDisplay:10.37,2013-03-11 03:47:00,
2013-03-10 23:48:00,51.7,0.6,30.21,ENE,69,0.0,0.0,12,0.00,CLR,,0.00,WeatherDisplay:10.37,2013-03-11 03:48:00,
2013-03-10 23:50:00,51.2,0.2,30.21,ENE,69,0.0,0.0,12,0.00,CLR,,0.00,WeatherDisplay:10.37,2013-03-11 03:50:00,
2013-03-10 23:52:00,51.3,-1.5,30.21,ENE,69,0.0,0.0,11,0.00,CLR,,0.00,WeatherDisplay:10.37,2013-03-11 03:52:00,
2013-03-10 23:53:00,50.9,0.0,30.21,ENE,69,0.0,0.0,12,0.00,CLR,,0.00,WeatherDisplay:10.37,2013-03-11 03:53:00,
2013-03-10 23:55:00,50.8,3.2,30.21,ENE,69,0.0,0.0,14,0.00,CLR,,0.00,WeatherDisplay:10.37,2013-03-11 03:55:00,
2013-03-10 23:57:00,50.6,-2.1,30.21,ESE,116,1.4,4.9,11,0.00,CLR,,0.00,WeatherDisplay:10.37,2013-03-11 03:57:00,
2013-03-10 23:59:00,51.8,-1.2,30.21,ESE,103,0.0,0.0,11,0.00,CLR,,0.00,WeatherDisplay:10.37,2013-03-11 03:59:00,